Time,TemperatureF,DewpointF,PressureIn,WindDirection,WindDirectionDegrees,WindSpeedMPH,WindSpeedGustMPH,Humidity,HourlyPrecipIn,Conditions,Clouds,dailyrainin,SoftwareType,DateUTC
2013-01-01 00:01:00,71.8,60.2,30.18,ESE,106,6.0,8.0,67,0.00,,,0.00,Wunderground v.1.15,2013-01-01 05:01:00,
2013-01-01 00:02:00,71.9,60.3,30.18,ENE,62,5.0,8.0,67,0.00,,,0.00,Wunderground v.1.15,2013-01-01 05:02:00,
2013-01-01 00:03:00,71.8,60.2,30.18,ENE,65,1.0,8.0,67,0.00,,,0.00,Wunderground v.1.15,2013-01-01 05:03:00,
2013-01-01 00:06:00,71.8,60.2,30.18,ENE,67,1.0,8.0,67,0.00,,,0.00,Wunderground v.1.15,2013-01-01 05:06:00,
2013-01-01 00:07:00,71.8,60.2,30.18,ENE,59,3.0,8.0,67,0.00,,,0.00,Wunderground v.1.15,2013-01-01 05:07:00,
2013-01-01 00:10:00,71.8,60.2,30.18,NE,53,5.0,5.0,67,0.00,,,0.00,Wunderground v.1.15,2013-01-01 05:10:00,
2013-01-01 00:11:00,71.9,60.3,30.18,ENE,69,2.0,5.0,67,0.00,,,0.00,Wunderground v.1.15,2013-01-01 05:11:00,
2013-01-01 00:13:00,71.9,60.8,30.18,SE,140,3.0,5.0,68,0.00,,,0.00,Wunderground v.1.15,2013-01-01 05:13:00,
2013-01-01 00:17:00,71.9,60.8,30.18,NE,56,2.0,5.0,68,0.00,,,0.00,Wunderground v.1.15,2013-01-01 05:17:00,
2013-01-01 00:18:00,71.9,60.8,30.18,ENE,58,5.0,5.0,68,0.00,,,0.00,Wunderground v.1.15,2013-01-01 05:18:00,
2013-01-01 00:19:00,71.9,60.8,30.18,SSE,154,3.0,5.0,68,0.00,,,0.00,Wunderground v.1.15,2013-01-01 05:19:00,
2013-01-01 00:21:00,71.9,60.8,30.18,NE,48,3.0,5.0,68,0.00,,,0.00,Wunderground v.1.15,2013-01-01 05:21:00,
2013-01-01 00:22:00,71.9,60.8,30.18,East,88,1.0,5.0,68,0.00,,,0.00,Wunderground v.1.15,2013-01-01 05:22:00,
2013-01-01 00:25:00,71.9,60.8,30.17,East,86,3.0,5.0,68,0.00,,,0.00,Wunderground v.1.15,2013-01-01 05:25:00,
2013-01-01 00:26:00,71.9,60.8,30.17,East,79,3.0,5.0,68,0.00,,,0.00,Wunderground v.1.15,2013-01-01 05:26:00,
2013-01-01 00:28:00,71.9,60.8,30.17,SE,135,0.0,5.0,68,0.00,,,0.00,Wunderground v.1.15,2013-01-01 05:28:00,
2013-01-01 00:32:00,71.9,61.2,30.17,ESE,104,5.0,5.0,69,0.00,,,0.00,Wunderground v.1.15,2013-01-01 05:32:00,
2013-01-01 00:35:00,72.0,60.9,30.17,East,79,3.0,5.0,68,0.00,,,0.00,Wunderground v.1.15,2013-01-01 05:35:00,
2013-01-01 00:37:00,72.0,60.9,30.17,ESE,106,0.0,5.0,68,0.00,,,0.00,Wunderground v.1.15,2013-01-01 05:37:00,
2013-01-01 00:39:00,72.0,60.9,30.17,East,96,4.0,4.0,68,0.00,,,0.00,Wunderground v.1.15,2013-01-01 05:39:00,
2013-01-01 00:40:00,72.0,60.9,30.17,ESE,106,1.0,4.0,68,0.00,,,0.00,Wunderground v.1.15,2013-01-01 05:40:00,
2013-01-01 00:45:00,71.9,60.3,30.17,East,90,2.0,4.0,67,0.00,,,0.00,Wunderground v.1.15,2013-01-01 05:45:00,
2013-01-01 00:46:00,72.0,60.0,30.17,ENE,63,4.0,4.0,66,0.00,,,0.00,Wunderground v.1.15,2013-01-01 05:46:00,
2013-01-01 00:47:00,72.0,60.0,30.17,ESE,112,5.0,5.0,66,0.00,,,0.00,Wunderground v.1.15,2013-01-01 05:47:00,
2013-01-01 00:51:00,72.0,60.0,30.17,ESE,109,5.0,5.0,66,0.00,,,0.00,Wunderground v.1.15,2013-01-01 05:51:00,
2013-01-01 00:54:00,72.0,60.0,30.17,ESE,119,1.0,5.0,66,0.00,,,0.00,Wunderground v.1.15,2013-01-01 05:54:00,
2013-01-01 00:55:00,72.0,60.0,30.17,SSE,156,3.0,5.0,66,0.00,,,0.00,Wunderground v.1.15,2013-01-01 05:55:00,
2013-01-01 00:57:00,72.0,60.4,30.17,East,90,4.0,5.0,67,0.00,,,0.00,Wunderground v.1.15,2013-01-01 05:57:00,
2013-01-01 00:58:00,72.0,60.4,30.17,East,79,4.0,5.0,67,0.00,,,0.00,Wunderground v.1.15,2013-01-01 05:58:00,
2013-01-01 01:01:00,72.0,60.4,30.17,ESE,108,2.0,4.0,67,0.00,,,0.00,Wunderground v.1.15,2013-01-01 06:01:00,
2013-01-01 01:05:00,72.0,60.0,30.17,SE,129,3.0,4.0,66,0.00,,,0.00,Wunderground v.1.15,2013-01-01 06:05:00,
2013-01-01 01:07:00,72.0,60.0,30.17,ENE,58,4.0,4.0,66,0.00,,,0.00,Wunderground v.1.15,2013-01-01 06:07:00,
2013-01-01 01:09:00,72.0,60.0,30.16,ENE,63,5.0,5.0,66,0.00,,,0.00,Wunderground v.1.15,2013-01-01 06:09:00,
2013-01-01 01:12:00,72.1,60.1,30.16,East,101,5.0,5.0,66,0.00,,,0.00,Wunderground v.1.15,2013-01-01 06:12:00,
2013-01-01 01:15:00,72.0,60.0,30.16,ENE,60,2.0,5.0,66,0.00,,,0.00,Wunderground v.1.15,2013-01-01 06:15:00,
2013-01-01 01:17:00,72.1,60.5,30.16,ENE,71,0.0,5.0,67,0.00,,,0.00,Wunderground v.1.15,2013-01-01 06:17:00,
2013-01-01 01:19:00,72.1,60.5,30.16,East,100,0.0,5.0,67,0.00,,,0.00,Wunderground v.1.15,2013-01-01 06:19:00,
2013-01-01 01:20:00,72.1,60.5,30.16,ENE,74,2.0,3.0,67,0.00,,,0.00,Wunderground v.1.15,2013-01-01 06:20:00,
2013-01-01 01:21:00,72.1,60.5,30.16,ESE,117,3.0,3.0,67,0.00,,,0.00,Wunderground v.1.15,2013-01-01 06:21:00,
2013-01-01 01:26:00,72.0,60.0,30.16,East,94,2.0,3.0,66,0.00,,,0.00,Wunderground v.1.15,2013-01-01 06:26:00,
2013-01-01 01:27:00,72.1,60.1,30.16,ENE,71,1.0,3.0,66,0.00,,,0.00,Wunderground v.1.15,2013-01-01 06:27:00,
2013-01-01 01:28:00,72.1,60.1,30.16,ENE,72,2.0,3.0,66,0.00,,,0.00,Wunderground v.1.15,2013-01-01 06:28:00,
2013-01-01 01:32:00,72.1,60.5,30.16,ENE,71,3.0,3.0,67,0.00,,,0.00,Wunderground v.1.15,2013-01-01 06:32:00,
2013-01-01 01:33:00,72.1,60.5,30.16,East,79,2.0,3.0,67,0.00,,,0.00,Wunderground v.1.15,2013-01-01 06:33:00,
2013-01-01 01:34:00,72.1,60.5,30.16,East,88,1.0,3.0,67,0.00,,,0.00,Wunderground v.1.15,2013-01-01 06:34:00,
2013-01-01 01:37:00,72.1,61.0,30.16,East,84,2.0,3.0,68,0.00,,,0.00,Wunderground v.1.15,2013-01-01 06:37:00,
2013-01-01 01:40:00,72.1,61.0,30.16,NE,52,3.0,3.0,68,0.00,,,0.00,Wunderground v.1.15,2013-01-01 06:40:00,
2013-01-01 01:41:00,72.1,61.0,30.16,SE,138,1.0,3.0,68,0.00,,,0.00,Wunderground v.1.15,2013-01-01 06:41:00,
2013-01-01 01:45:00,72.1,61.4,30.16,East,92,1.0,4.0,69,0.00,,,0.00,Wunderground v.1.15,2013-01-01 06:45:00,
2013-01-01 01:46:00,72.2,61.9,30.15,East,101,2.0,4.0,70,0.00,,,0.00,Wunderground v.1.15,2013-01-01 06:46:00,
2013-01-01 01:52:00,72.2,61.5,30.15,ENE,77,5.0,5.0,69,0.00,,,0.00,Wunderground v.1.15,2013-01-01 06:52:00,
2013-01-01 01:53:00,72.2,61.5,30.15,ESE,110,2.0,5.0,69,0.00,,,0.00,Wunderground v.1.15,2013-01-01 06:53:00,
2013-01-01 01:54:00,72.2,61.5,30.15,East,101,3.0,5.0,69,0.00,,,0.00,Wunderground v.1.15,2013-01-01 06:54:00,
2013-01-01 01:58:00,72.3,61.6,30.15,ENE,74,4.0,9.0,69,0.00,,,0.00,Wunderground v.1.15,2013-01-01 06:58:00,
2013-01-01 01:59:00,72.3,61.1,30.15,ESE,112,5.0,9.0,68,0.00,,,0.00,Wunderground v.1.15,2013-01-01 06:59:00,
2013-01-01 02:01:00,72.3,61.6,30.15,East,81,4.0,5.0,69,0.00,,,0.00,Wunderground v.1.15,2013-01-01 07:01:00,
2013-01-01 02:03:00,72.3,61.1,30.15,ENE,63,5.0,7.0,68,0.00,,,0.00,Wunderground v.1.15,2013-01-01 07:03:00,
2013-01-01 02:04:00,72.3,61.1,30.15,ESE,119,5.0,7.0,68,0.00,,,0.00,Wunderground v.1.15,2013-01-01 07:04:00,
2013-01-01 02:06:00,72.3,60.7,30.15,NE,51,3.0,7.0,67,0.00,,,0.00,Wunderground v.1.15,2013-01-01 07:06:00,
2013-01-01 02:08:00,72.3,60.7,30.16,ESE,112,3.0,7.0,67,0.00,,,0.00,Wunderground v.1.15,2013-01-01 07:08:00,
2013-01-01 02:09:00,72.3,60.7,30.16,SE,127,3.0,7.0,67,0.00,,,0.00,Wunderground v.1.15,2013-01-01 07:09:00,
2013-01-01 02:11:00,72.3,60.3,30.15,ESE,115,4.0,6.0,66,0.00,,,0.00,Wunderground v.1.15,2013-01-01 07:11:00,
2013-01-01 02:13:00,72.3,60.3,30.15,East,88,3.0,6.0,66,0.00,,,0.00,Wunderground v.1.15,2013-01-01 07:13:00,
2013-01-01 02:14:00,72.3,59.9,30.15,East,96,3.0,6.0,65,0.00,,,0.00,Wunderground v.1.15,2013-01-01 07:14:00,
2013-01-01 02:16:00,72.3,60.3,30.16,NE,55,3.0,6.0,66,0.00,,,0.00,Wunderground v.1.15,2013-01-01 07:16:00,
2013-01-01 02:18:00,72.2,59.8,30.15,East,90,6.0,8.0,65,0.00,,,0.00,Wunderground v.1.15,2013-01-01 07:18:00,
2013-01-01 02:19:00,72.2,59.8,30.15,ENE,59,3.0,3.0,65,0.00,,,0.00,Wunderground v.1.15,2013-01-01 07:19:00,
2013-01-01 02:21:00,72.2,59.3,30.16,East,81,5.0,6.0,64,0.00,,,0.00,Wunderground v.1.15,2013-01-01 07:21:00,
2013-01-01 02:23:00,72.2,58.9,30.15,ENE,73,3.0,9.0,63,0.00,,,0.00,Wunderground v.1.15,2013-01-01 07:23:00,
2013-01-01 02:25:00,72.2,58.9,30.15,ENE,69,6.0,10.0,63,0.00,,,0.00,Wunderground v.1.15,2013-01-01 07:25:00,
2013-01-01 02:26:00,72.2,58.9,30.15,SE,127,3.0,10.0,63,0.00,,,0.00,Wunderground v.1.15,2013-01-01 07:26:00,
2013-01-01 02:28:00,72.1,58.8,30.15,ESE,121,6.0,11.0,63,0.00,,,0.00,Wunderground v.1.15,2013-01-01 07:28:00,
2013-01-01 02:30:00,72.1,59.2,30.16,East,88,5.0,5.0,64,0.00,,,0.00,Wunderground v.1.15,2013-01-01 07:30:00,
2013-01-01 02:31:00,72.1,59.2,30.16,SE,131,3.0,5.0,64,0.00,,,0.00,Wunderground v.1.15,2013-01-01 07:31:00,
2013-01-01 02:32:00,72.1,59.7,30.16,East,94,1.0,5.0,65,0.00,,,0.00,Wunderground v.1.15,2013-01-01 07:32:00,
2013-01-01 02:34:00,72.1,59.7,30.16,ESE,102,3.0,5.0,65,0.00,,,0.00,Wunderground v.1.15,2013-01-01 07:34:00,
2013-01-01 02:36:00,72.0,59.6,30.15,ESE,105,5.0,5.0,65,0.00,,,0.00,Wunderground v.1.15,2013-01-01 07:36:00,
2013-01-01 02:37:00,72.0,59.6,30.15,East,101,3.0,10.0,65,0.00,,,0.00,Wunderground v.1.15,2013-01-01 07:37:00,
2013-01-01 02:39:00,71.9,59.1,30.15,South,172,1.0,10.0,64,0.00,,,0.00,Wunderground v.1.15,2013-01-01 07:39:00,
2013-01-01 02:41:00,71.9,59.5,30.15,SE,137,2.0,3.0,65,0.00,,,0.00,Wunderground v.1.15,2013-01-01 07:41:00,
2013-01-01 02:42:00,71.9,59.5,30.15,East,95,3.0,3.0,65,0.00,,,0.00,Wunderground v.1.15,2013-01-01 07:42:00,
2013-01-01 02:43:00,71.9,59.5,30.15,ENE,77,0.0,3.0,65,0.00,,,0.00,Wunderground v.1.15,2013-01-01 07:43:00,
2013-01-01 02:44:00,71.9,59.5,30.15,NE,50,4.0,4.0,65,0.00,,,0.00,Wunderground v.1.15,2013-01-01 07:44:00,
2013-01-01 02:47:00,71.9,59.5,30.15,NE,56,2.0,4.0,65,0.00,,,0.00,Wunderground v.1.15,2013-01-01 07:47:00,
2013-01-01 02:48:00,71.9,59.5,30.15,ENE,77,2.0,4.0,65,0.00,,,0.00,Wunderground v.1.15,2013-01-01 07:48:00,
2013-01-01 02:50:00,71.9,59.9,30.15,ESE,106,2.0,4.0,66,0.00,,,0.00,Wunderground v.1.15,2013-01-01 07:50:00,
2013-01-01 02:52:00,71.9,60.3,30.16,ESE,121,0.0,4.0,67,0.00,,,0.00,Wunderground v.1.15,2013-01-01 07:52:00,
2013-01-01 02:53:00,71.9,60.3,30.15,ESE,121,0.0,4.0,67,0.00,,,0.00,Wunderground v.1.15,2013-01-01 07:53:00,
2013-01-01 02:55:00,71.8,60.2,30.16,SSE,157,1.0,4.0,67,0.00,,,0.00,Wunderground v.1.15,2013-01-01 07:55:00,
2013-01-01 02:58:00,71.8,59.8,30.15,SSE,166,0.0,11.0,66,0.00,,,0.00,Wunderground v.1.15,2013-01-01 07:58:00,
2013-01-01 03:01:00,71.8,59.4,30.15,ESE,108,0.0,2.0,65,0.00,,,0.00,Wunderground v.1.15,2013-01-01 08:01:00,
2013-01-01 03:03:00,71.8,59.8,30.15,ESE,121,0.0,3.0,66,0.00,,,0.00,Wunderground v.1.15,2013-01-01 08:03:00,
2013-01-01 03:06:00,71.8,59.8,30.15,ESE,116,0.0,4.0,66,0.00,,,0.00,Wunderground v.1.15,2013-01-01 08:06:00,
2013-01-01 03:08:00,71.8,59.8,30.15,ENE,74,2.0,4.0,66,0.00,,,0.00,Wunderground v.1.15,2013-01-01 08:08:00,
2013-01-01 03:09:00,71.8,60.2,30.15,East,96,1.0,4.0,67,0.00,,,0.00,Wunderground v.1.15,2013-01-01 08:09:00,
2013-01-01 03:11:00,71.8,60.2,30.15,ESE,120,0.0,2.0,67,0.00,,,0.00,Wunderground v.1.15,2013-01-01 08:11:00,
2013-01-01 03:13:00,71.8,60.2,30.15,ESE,123,7.0,7.0,67,0.00,,,0.00,Wunderground v.1.15,2013-01-01 08:13:00,
2013-01-01 03:14:00,71.9,60.3,30.15,ENE,77,3.0,7.0,67,0.00,,,0.00,Wunderground v.1.15,2013-01-01 08:14:00,
2013-01-01 03:16:00,71.8,60.2,30.15,ENE,63,4.0,7.0,67,0.00,,,0.00,Wunderground v.1.15,2013-01-01 08:16:00,
2013-01-01 03:18:00,71.9,59.9,30.15,ESE,112,2.0,7.0,66,0.00,,,0.00,Wunderground v.1.15,2013-01-01 08:18:00,
2013-01-01 03:19:00,71.9,59.9,30.15,ESE,119,1.0,7.0,66,0.00,,,0.00,Wunderground v.1.15,2013-01-01 08:19:00,
2013-01-01 03:22:00,71.9,59.5,30.15,East,85,3.0,11.0,65,0.00,,,0.00,Wunderground v.1.15,2013-01-01 08:22:00,
2013-01-01 03:23:00,71.9,59.5,30.15,ENE,61,2.0,11.0,65,0.00,,,0.00,Wunderground v.1.15,2013-01-01 08:23:00,
2013-01-01 03:24:00,71.9,59.5,30.15,ESE,116,1.0,11.0,65,0.00,,,0.00,Wunderground v.1.15,2013-01-01 08:24:00,
2013-01-01 03:27:00,71.9,59.5,30.15,East,96,2.0,11.0,65,0.00,,,0.00,Wunderground v.1.15,2013-01-01 08:27:00,
2013-01-01 03:28:00,71.9,59.5,30.15,SE,125,1.0,11.0,65,0.00,,,0.00,Wunderground v.1.15,2013-01-01 08:28:00,
2013-01-01 03:29:00,71.9,59.5,30.15,SE,125,1.0,3.0,65,0.00,,,0.00,Wunderground v.1.15,2013-01-01 08:29:00,
2013-01-01 03:32:00,71.9,59.5,30.15,SSE,158,4.0,6.0,65,0.00,,,0.00,Wunderground v.1.15,2013-01-01 08:32:00,
2013-01-01 03:34:00,71.8,59.4,30.15,SE,139,1.0,6.0,65,0.00,,,0.00,Wunderground v.1.15,2013-01-01 08:34:00,
2013-01-01 03:37:00,71.8,59.4,30.15,SE,146,2.0,6.0,65,0.00,,,0.00,Wunderground v.1.15,2013-01-01 08:37:00,
2013-01-01 03:39:00,71.8,59.4,30.15,SE,127,2.0,6.0,65,0.00,,,0.00,Wunderground v.1.15,2013-01-01 08:39:00,
2013-01-01 03:40:00,71.7,59.7,30.15,East,81,2.0,2.0,66,0.00,,,0.00,Wunderground v.1.15,2013-01-01 08:40:00,
2013-01-01 03:42:00,71.7,59.7,30.15,East,83,4.0,4.0,66,0.00,,,0.00,Wunderground v.1.15,2013-01-01 08:42:00,
2013-01-01 03:44:00,71.7,59.7,30.15,ENE,59,2.0,4.0,66,0.00,,,0.00,Wunderground v.1.15,2013-01-01 08:44:00,
2013-01-01 03:45:00,71.8,59.8,30.15,NNE,25,1.0,4.0,66,0.00,,,0.00,Wunderground v.1.15,2013-01-01 08:45:00,
2013-01-01 03:46:00,71.7,60.2,30.15,ENE,58,2.0,5.0,67,0.00,,,0.00,Wunderground v.1.15,2013-01-01 08:46:00,
2013-01-01 03:48:00,71.8,60.2,30.15,East,94,2.0,5.0,67,0.00,,,0.00,Wunderground v.1.15,2013-01-01 08:48:00,
2013-01-01 03:49:00,71.8,60.2,30.15,ESE,105,1.0,5.0,67,0.00,,,0.00,Wunderground v.1.15,2013-01-01 08:49:00,
2013-01-01 03:50:00,71.8,60.2,30.15,East,100,2.0,3.0,67,0.00,,,0.00,Wunderground v.1.15,2013-01-01 08:50:00,
2013-01-01 03:51:00,71.8,60.2,30.15,ESE,108,0.0,3.0,67,0.00,,,0.00,Wunderground v.1.15,2013-01-01 08:51:00,
2013-01-01 03:53:00,71.8,60.2,30.15,ESE,108,0.0,3.0,67,0.00,,,0.00,Wunderground v.1.15,2013-01-01 08:53:00,
2013-01-01 03:54:00,71.8,60.2,30.15,NE,54,1.0,5.0,67,0.00,,,0.00,Wunderground v.1.15,2013-01-01 08:54:00,
2013-01-01 03:55:00,71.8,59.8,30.15,NE,52,3.0,5.0,66,0.00,,,0.00,Wunderground v.1.15,2013-01-01 08:55:00,
2013-01-01 03:57:00,71.8,59.8,30.15,ESE,121,1.0,6.0,66,0.00,,,0.00,Wunderground v.1.15,2013-01-01 08:57:00,
2013-01-01 03:58:00,71.8,59.4,30.15,East,94,1.0,6.0,65,0.00,,,0.00,Wunderground v.1.15,2013-01-01 08:58:00,
2013-01-01 03:59:00,71.8,59.8,30.15,ESE,117,5.0,5.0,66,0.00,,,0.00,Wunderground v.1.15,2013-01-01 08:59:00,
2013-01-01 04:00:00,71.9,59.5,30.15,ESE,112,2.0,8.0,65,0.00,,,0.00,Wunderground v.1.15,2013-01-01 09:00:00,
2013-01-01 04:02:00,71.9,59.5,30.15,ENE,72,1.0,8.0,65,0.00,,,0.00,Wunderground v.1.15,2013-01-01 09:02:00,
2013-01-01 04:03:00,71.9,59.5,30.15,SE,128,0.0,8.0,65,0.00,,,0.00,Wunderground v.1.15,2013-01-01 09:03:00,
2013-01-01 04:04:00,71.9,59.5,30.15,East,100,2.0,8.0,65,0.00,,,0.00,Wunderground v.1.15,2013-01-01 09:04:00,
2013-01-01 04:05:00,71.9,59.5,30.15,ESE,102,2.0,8.0,65,0.00,,,0.00,Wunderground v.1.15,2013-01-01 09:05:00,
2013-01-01 04:07:00,71.9,59.5,30.15,ESE,104,0.0,8.0,65,0.00,,,0.00,Wunderground v.1.15,2013-01-01 09:07:00,
2013-01-01 04:08:00,71.9,59.5,30.15,ESE,104,0.0,8.0,65,0.00,,,0.00,Wunderground v.1.15,2013-01-01 09:08:00,
2013-01-01 04:10:00,71.9,59.9,30.15,South,185,6.0,6.0,66,0.00,,,0.00,Wunderground v.1.15,2013-01-01 09:10:00,
2013-01-01 04:12:00,71.9,60.3,30.15,ESE,110,0.0,6.0,67,0.00,,,0.00,Wunderground v.1.15,2013-01-01 09:12:00,
2013-01-01 04:13:00,71.9,60.3,30.15,ESE,110,3.0,6.0,67,0.00,,,0.00,Wunderground v.1.15,2013-01-01 09:13:00,
2013-01-01 04:15:00,72.0,60.0,30.15,East,90,3.0,6.0,66,0.00,,,0.00,Wunderground v.1.15,2013-01-01 09:15:00,
2013-01-01 04:16:00,72.0,60.0,30.15,East,101,2.0,6.0,66,0.00,,,0.00,Wunderground v.1.15,2013-01-01 09:16:00,
2013-01-01 04:18:00,72.0,60.0,30.15,East,85,1.0,6.0,66,0.00,,,0.00,Wunderground v.1.15,2013-01-01 09:18:00,
2013-01-01 04:19:00,72.0,60.0,30.15,East,94,3.0,6.0,66,0.00,,,0.00,Wunderground v.1.15,2013-01-01 09:19:00,
2013-01-01 04:20:00,72.0,59.6,30.15,ESE,106,2.0,4.0,65,0.00,,,0.00,Wunderground v.1.15,2013-01-01 09:20:00,
2013-01-01 04:23:00,72.1,59.7,30.15,East,89,2.0,5.0,65,0.00,,,0.00,Wunderground v.1.15,2013-01-01 09:23:00,
2013-01-01 04:24:00,72.1,59.7,30.15,ENE,75,2.0,5.0,65,0.00,,,0.00,Wunderground v.1.15,2013-01-01 09:24:00,
2013-01-01 04:25:00,72.1,60.1,30.14,NE,47,2.0,5.0,66,0.00,,,0.00,Wunderground v.1.15,2013-01-01 09:25:00,
2013-01-01 04:26:00,72.1,60.1,30.14,East,100,2.0,5.0,66,0.00,,,0.00,Wunderground v.1.15,2013-01-01 09:26:00,
2013-01-01 04:28:00,72.1,60.1,30.14,NE,46,1.0,5.0,66,0.00,,,0.00,Wunderground v.1.15,2013-01-01 09:28:00,
2013-01-01 04:29:00,72.1,60.5,30.14,ESE,115,3.0,6.0,67,0.00,,,0.00,Wunderground v.1.15,2013-01-01 09:29:00,
2013-01-01 04:31:00,72.1,60.5,30.14,SE,125,3.0,4.0,67,0.00,,,0.00,Wunderground v.1.15,2013-01-01 09:31:00,
2013-01-01 04:33:00,72.1,60.5,30.14,ESE,122,2.0,4.0,67,0.00,,,0.00,Wunderground v.1.15,2013-01-01 09:33:00,
2013-01-01 04:34:00,72.1,60.5,30.14,SE,127,4.0,5.0,67,0.00,,,0.00,Wunderground v.1.15,2013-01-01 09:34:00,
2013-01-01 04:36:00,72.1,60.5,30.14,ESE,107,3.0,6.0,67,0.00,,,0.00,Wunderground v.1.15,2013-01-01 09:36:00,
2013-01-01 04:38:00,72.0,60.4,30.14,East,90,1.0,6.0,67,0.00,,,0.00,Wunderground v.1.15,2013-01-01 09:38:00,
2013-01-01 04:39:00,72.0,60.4,30.14,East,101,2.0,2.0,67,0.00,,,0.00,Wunderground v.1.15,2013-01-01 09:39:00,
2013-01-01 04:41:00,72.0,60.0,30.14,SE,127,4.0,5.0,66,0.00,,,0.00,Wunderground v.1.15,2013-01-01 09:41:00,
2013-01-01 04:42:00,72.0,60.0,30.14,ESE,102,3.0,5.0,66,0.00,,,0.00,Wunderground v.1.15,2013-01-01 09:42:00,
2013-01-01 04:43:00,72.0,59.6,30.14,East,83,1.0,5.0,65,0.00,,,0.00,Wunderground v.1.15,2013-01-01 09:43:00,
2013-01-01 04:44:00,72.0,59.6,30.14,East,96,2.0,5.0,65,0.00,,,0.00,Wunderground v.1.15,2013-01-01 09:44:00,
2013-01-01 04:46:00,71.9,59.5,30.14,East,96,0.0,5.0,65,0.00,,,0.00,Wunderground v.1.15,2013-01-01 09:46:00,
2013-01-01 04:47:00,72.0,59.6,30.14,East,96,1.0,5.0,65,0.00,,,0.00,Wunderground v.1.15,2013-01-01 09:47:00,
2013-01-01 04:49:00,71.9,59.5,30.13,SE,129,0.0,5.0,65,0.00,,,0.00,Wunderground v.1.15,2013-01-01 09:49:00,
2013-01-01 04:50:00,72.0,59.6,30.13,SSE,147,2.0,4.0,65,0.00,,,0.00,Wunderground v.1.15,2013-01-01 09:50:00,
2013-01-01 04:51:00,71.9,59.5,30.13,SE,139,2.0,4.0,65,0.00,,,0.00,Wunderground v.1.15,2013-01-01 09:51:00,
2013-01-01 04:52:00,71.9,59.5,30.13,NE,41,2.0,4.0,65,0.00,,,0.00,Wunderground v.1.15,2013-01-01 09:52:00,
2013-01-01 04:54:00,71.9,59.5,30.13,NE,48,0.0,4.0,65,0.00,,,0.00,Wunderground v.1.15,2013-01-01 09:54:00,
2013-01-01 04:55:00,71.9,59.5,30.13,ESE,114,1.0,4.0,65,0.00,,,0.00,Wunderground v.1.15,2013-01-01 09:55:00,
2013-01-01 04:57:00,71.9,59.5,30.13,SE,136,7.0,7.0,65,0.00,,,0.00,Wunderground v.1.15,2013-01-01 09:57:00,
2013-01-01 05:00:00,71.9,59.5,30.13,ENE,69,0.0,2.0,65,0.00,,,0.00,Wunderground v.1.15,2013-01-01 10:00:00,
2013-01-01 05:02:00,71.9,59.5,30.13,SE,130,2.0,5.0,65,0.00,,,0.00,Wunderground v.1.15,2013-01-01 10:02:00,
2013-01-01 05:05:00,71.8,59.4,30.13,East,95,1.0,6.0,65,0.00,,,0.00,Wunderground v.1.15,2013-01-01 10:05:00,
2013-01-01 05:06:00,71.8,59.4,30.13,NE,52,4.0,6.0,65,0.00,,,0.00,Wunderground v.1.15,2013-01-01 10:06:00,
2013-01-01 05:07:00,71.8,59.4,30.13,ESE,113,2.0,6.0,65,0.00,,,0.00,Wunderground v.1.15,2013-01-01 10:07:00,
2013-01-01 05:10:00,71.8,59.4,30.13,ESE,115,2.0,5.0,65,0.00,,,0.00,Wunderground v.1.15,2013-01-01 10:10:00,
2013-01-01 05:11:00,71.8,59.4,30.13,ESE,102,5.0,6.0,65,0.00,,,0.00,Wunderground v.1.15,2013-01-01 10:11:00,
2013-01-01 05:12:00,71.8,59.4,30.13,East,79,4.0,6.0,65,0.00,,,0.00,Wunderground v.1.15,2013-01-01 10:12:00,
2013-01-01 05:13:00,71.8,59.4,30.13,ESE,110,9.0,9.0,65,0.00,,,0.00,Wunderground v.1.15,2013-01-01 10:13:00,
2013-01-01 05:15:00,71.8,59.8,30.13,ENE,77,2.0,9.0,66,0.00,,,0.00,Wunderground v.1.15,2013-01-01 10:15:00,
2013-01-01 05:16:00,71.9,59.9,30.13,SE,126,0.0,11.0,66,0.00,,,0.00,Wunderground v.1.15,2013-01-01 10:16:00,
2013-01-01 05:17:00,71.9,59.5,30.13,ESE,108,3.0,11.0,65,0.00,,,0.00,Wunderground v.1.15,2013-01-01 10:17:00,
2013-01-01 05:18:00,71.9,59.5,30.13,East,94,3.0,11.0,65,0.00,,,0.00,Wunderground v.1.15,2013-01-01 10:18:00,
2013-01-01 05:20:00,71.9,59.9,30.13,SSE,158,7.0,7.0,66,0.00,,,0.00,Wunderground v.1.15,2013-01-01 10:20:00,
2013-01-01 05:21:00,71.9,59.5,30.13,ESE,107,3.0,7.0,65,0.00,,,0.00,Wunderground v.1.15,2013-01-01 10:21:00,
2013-01-01 05:23:00,71.9,59.5,30.13,East,93,4.0,10.0,65,0.00,,,0.00,Wunderground v.1.15,2013-01-01 10:23:00,
2013-01-01 05:25:00,71.9,59.9,30.13,East,83,10.0,11.0,66,0.00,,,0.00,Wunderground v.1.15,2013-01-01 10:25:00,
2013-01-01 05:27:00,71.9,59.9,30.13,ENE,60,3.0,11.0,66,0.00,,,0.00,Wunderground v.1.15,2013-01-01 10:27:00,
2013-01-01 05:28:00,71.9,59.9,30.13,NE,35,2.0,11.0,66,0.00,,,0.00,Wunderground v.1.15,2013-01-01 10:28:00,
2013-01-01 05:31:00,71.9,59.9,30.13,East,85,2.0,5.0,66,0.00,,,0.00,Wunderground v.1.15,2013-01-01 10:31:00,
2013-01-01 05:32:00,71.9,59.9,30.13,East,98,1.0,6.0,66,0.00,,,0.00,Wunderground v.1.15,2013-01-01 10:32:00,
2013-01-01 05:33:00,71.9,59.5,30.13,South,179,4.0,7.0,65,0.00,,,0.00,Wunderground v.1.15,2013-01-01 10:33:00,
2013-01-01 05:34:00,71.9,59.5,30.13,ENE,63,3.0,7.0,65,0.00,,,0.00,Wunderground v.1.15,2013-01-01 10:34:00,
2013-01-01 05:36:00,71.9,59.5,30.13,NE,45,1.0,7.0,65,0.00,,,0.00,Wunderground v.1.15,2013-01-01 10:36:00,
2013-01-01 05:37:00,71.9,59.5,30.13,NE,44,4.0,7.0,65,0.00,,,0.00,Wunderground v.1.15,2013-01-01 10:37:00,
2013-01-01 05:38:00,71.9,59.5,30.13,East,88,3.0,7.0,65,0.00,,,0.00,Wunderground v.1.15,2013-01-01 10:38:00,
2013-01-01 05:39:00,71.9,59.5,30.13,ESE,115,5.0,7.0,65,0.00,,,0.00,Wunderground v.1.15,2013-01-01 10:39:00,
2013-01-01 05:42:00,71.8,59.0,30.13,East,99,5.0,6.0,64,0.00,,,0.00,Wunderground v.1.15,2013-01-01 10:42:00,
2013-01-01 05:43:00,71.8,59.0,30.13,NE,52,3.0,6.0,64,0.00,,,0.00,Wunderground v.1.15,2013-01-01 10:43:00,
2013-01-01 05:44:00,71.8,59.0,30.13,ESE,108,4.0,6.0,64,0.00,,,0.00,Wunderground v.1.15,2013-01-01 10:44:00,
2013-01-01 05:47:00,71.9,59.5,30.13,East,82,2.0,6.0,65,0.00,,,0.00,Wunderground v.1.15,2013-01-01 10:47:00,
2013-01-01 05:48:00,71.8,59.4,30.13,East,100,4.0,6.0,65,0.00,,,0.00,Wunderground v.1.15,2013-01-01 10:48:00,
2013-01-01 05:49:00,71.8,59.4,30.13,SE,142,4.0,7.0,65,0.00,,,0.00,Wunderground v.1.15,2013-01-01 10:49:00,
2013-01-01 05:52:00,71.8,59.4,30.13,NNE,29,5.0,7.0,65,0.00,,,0.00,Wunderground v.1.15,2013-01-01 10:52:00,
2013-01-01 05:53:00,71.8,59.4,30.13,SE,144,3.0,9.0,65,0.00,,,0.00,Wunderground v.1.15,2013-01-01 10:53:00,
2013-01-01 05:54:00,71.8,59.4,30.13,ESE,105,2.0,9.0,65,0.00,,,0.00,Wunderground v.1.15,2013-01-01 10:54:00,
2013-01-01 05:57:00,71.8,59.4,30.13,ESE,113,3.0,9.0,65,0.00,,,0.00,Wunderground v.1.15,2013-01-01 10:57:00,
2013-01-01 05:58:00,71.8,59.0,30.13,ESE,115,3.0,9.0,64,0.00,,,0.00,Wunderground v.1.15,2013-01-01 10:58:00,
2013-01-01 05:59:00,71.8,59.4,30.13,ESE,110,2.0,9.0,65,0.00,,,0.00,Wunderground v.1.15,2013-01-01 10:59:00,
2013-01-01 06:02:00,71.8,59.4,30.13,ENE,77,2.0,10.0,65,0.00,,,0.00,Wunderground v.1.15,2013-01-01 11:02:00,
2013-01-01 06:03:00,71.8,59.4,30.13,East,85,3.0,10.0,65,0.00,,,0.00,Wunderground v.1.15,2013-01-01 11:03:00,
2013-01-01 06:04:00,71.7,59.3,30.13,East,91,2.0,10.0,65,0.00,,,0.00,Wunderground v.1.15,2013-01-01 11:04:00,
2013-01-01 06:08:00,71.7,59.3,30.13,East,80,2.0,10.0,65,0.00,,,0.00,Wunderground v.1.15,2013-01-01 11:08:00,
2013-01-01 06:09:00,71.7,59.3,30.13,East,98,2.0,10.0,65,0.00,,,0.00,Wunderground v.1.15,2013-01-01 11:09:00,
2013-01-01 06:13:00,71.7,59.3,30.13,NNE,26,3.0,6.0,65,0.00,,,0.00,Wunderground v.1.15,2013-01-01 11:13:00,
2013-01-01 06:15:00,71.7,59.3,30.13,ENE,63,4.0,6.0,65,0.00,,,0.00,Wunderground v.1.15,2013-01-01 11:15:00,
2013-01-01 06:18:00,71.7,59.3,30.13,SE,125,1.0,6.0,65,0.00,,,0.00,Wunderground v.1.15,2013-01-01 11:18:00,
2013-01-01 06:19:00,71.7,59.3,30.13,SE,125,0.0,6.0,65,0.00,,,0.00,Wunderground v.1.15,2013-01-01 11:19:00,
2013-01-01 06:20:00,71.7,59.3,30.13,ESE,111,1.0,3.0,65,0.00,,,0.00,Wunderground v.1.15,2013-01-01 11:20:00,
2013-01-01 06:21:00,71.6,59.2,30.13,East,85,2.0,4.0,65,0.00,,,0.00,Wunderground v.1.15,2013-01-01 11:21:00,
2013-01-01 06:23:00,71.6,59.2,30.13,ESE,108,4.0,6.0,65,0.00,,,0.00,Wunderground v.1.15,2013-01-01 11:23:00,
2013-01-01 06:24:00,71.6,59.2,30.13,East,80,6.0,10.0,65,0.00,,,0.00,Wunderground v.1.15,2013-01-01 11:24:00,
2013-01-01 06:25:00,71.6,59.2,30.13,ESE,114,4.0,10.0,65,0.00,,,0.00,Wunderground v.1.15,2013-01-01 11:25:00,
2013-01-01 06:26:00,71.7,59.3,30.13,ENE,68,4.0,10.0,65,0.00,,,0.00,Wunderground v.1.15,2013-01-01 11:26:00,
2013-01-01 06:29:00,71.7,58.9,30.13,ENE,69,6.0,10.0,64,0.00,,,0.00,Wunderground v.1.15,2013-01-01 11:29:00,
2013-01-01 06:30:00,71.7,58.9,30.13,ENE,72,4.0,5.0,64,0.00,,,0.00,Wunderground v.1.15,2013-01-01 11:30:00,
2013-01-01 06:31:00,71.7,58.9,30.13,East,95,6.0,8.0,64,0.00,,,0.00,Wunderground v.1.15,2013-01-01 11:31:00,
2013-01-01 06:34:00,71.7,59.3,30.12,ESE,118,6.0,8.0,65,0.00,,,0.00,Wunderground v.1.15,2013-01-01 11:34:00,
2013-01-01 06:35:00,71.8,59.4,30.12,SSE,153,3.0,8.0,65,0.00,,,0.00,Wunderground v.1.15,2013-01-01 11:35:00,
2013-01-01 06:36:00,71.7,58.9,30.12,East,98,3.0,8.0,64,0.00,,,0.00,Wunderground v.1.15,2013-01-01 11:36:00,
2013-01-01 06:39:00,71.8,59.4,30.12,ESE,107,11.0,11.0,65,0.00,,,0.00,Wunderground v.1.15,2013-01-01 11:39:00,
2013-01-01 06:40:00,71.8,59.4,30.12,East,88,4.0,8.0,65,0.00,,,0.00,Wunderground v.1.15,2013-01-01 11:40:00,
2013-01-01 06:42:00,71.9,59.1,30.13,East,100,5.0,8.0,64,0.00,,,0.00,Wunderground v.1.15,2013-01-01 11:42:00,
2013-01-01 06:44:00,71.9,59.5,30.12,ESE,111,7.0,12.0,65,0.00,,,0.00,Wunderground v.1.15,2013-01-01 11:44:00,
2013-01-01 06:45:00,71.9,59.1,30.12,East,90,4.0,12.0,64,0.00,,,0.00,Wunderground v.1.15,2013-01-01 11:45:00,
2013-01-01 06:47:00,71.9,59.1,30.12,East,96,3.0,12.0,64,0.00,,,0.00,Wunderground v.1.15,2013-01-01 11:47:00,
2013-01-01 06:49:00,71.9,59.5,30.12,ENE,74,4.0,5.0,65,0.00,,,0.00,Wunderground v.1.15,2013-01-01 11:49:00,
2013-01-01 06:50:00,71.9,59.5,30.12,SE,144,5.0,10.0,65,0.00,,,0.00,Wunderground v.1.15,2013-01-01 11:50:00,
2013-01-01 06:51:00,71.9,59.5,30.12,ESE,102,6.0,10.0,65,0.00,,,0.00,Wunderground v.1.15,2013-01-01 11:51:00,
2013-01-01 06:52:00,71.9,59.1,30.12,East,94,13.0,13.0,64,0.00,,,0.00,Wunderground v.1.15,2013-01-01 11:52:00,
2013-01-01 06:54:00,71.9,59.1,30.12,ENE,76,3.0,13.0,64,0.00,,,0.00,Wunderground v.1.15,2013-01-01 11:54:00,
2013-01-01 06:56:00,72.0,59.6,30.12,SSE,165,7.0,13.0,65,0.00,,,0.00,Wunderground v.1.15,2013-01-01 11:56:00,
2013-01-01 06:57:00,72.0,59.2,30.12,ENE,59,5.0,13.0,64,0.00,,,0.00,Wunderground v.1.15,2013-01-01 11:57:00,
2013-01-01 06:59:00,72.0,59.2,30.12,East,82,2.0,5.0,64,0.00,,,0.00,Wunderground v.1.15,2013-01-01 11:59:00,
2013-01-01 07:01:00,72.0,59.2,30.12,ESE,106,0.0,5.0,64,0.00,,,0.00,Wunderground v.1.15,2013-01-01 12:01:00,
2013-01-01 07:03:00,72.0,59.2,30.12,South,182,1.0,5.0,64,0.00,,,0.00,Wunderground v.1.15,2013-01-01 12:03:00,
2013-01-01 07:05:00,71.9,59.5,30.12,SE,137,3.0,9.0,65,0.00,,,0.00,Wunderground v.1.15,2013-01-01 12:05:00,
2013-01-01 07:06:00,71.9,59.5,30.12,ESE,122,6.0,9.0,65,0.00,,,0.00,Wunderground v.1.15,2013-01-01 12:06:00,
2013-01-01 07:08:00,71.9,59.5,30.12,ENE,68,4.0,11.0,65,0.00,,,0.00,Wunderground v.1.15,2013-01-01 12:08:00,
2013-01-01 07:10:00,71.9,59.5,30.12,SE,144,1.0,3.0,65,0.00,,,0.00,Wunderground v.1.15,2013-01-01 12:10:00,
2013-01-01 07:11:00,71.9,59.5,30.12,SE,138,6.0,6.0,65,0.00,,,0.00,Wunderground v.1.15,2013-01-01 12:11:00,
2013-01-01 07:12:00,71.9,59.5,30.12,South,181,6.0,6.0,65,0.00,,,0.00,Wunderground v.1.15,2013-01-01 12:12:00,
2013-01-01 07:13:00,71.9,59.5,30.12,East,79,1.0,7.0,65,0.00,,,0.00,Wunderground v.1.15,2013-01-01 12:13:00,
2013-01-01 07:15:00,71.8,59.4,30.12,ENE,61,0.0,7.0,65,0.00,,,0.00,Wunderground v.1.15,2013-01-01 12:15:00,
2013-01-01 07:16:00,71.8,59.4,30.12,SE,140,2.0,7.0,65,0.00,,,0.00,Wunderground v.1.15,2013-01-01 12:16:00,
2013-01-01 07:17:00,71.8,59.8,30.12,SSE,162,4.0,7.0,66,0.00,,,0.00,Wunderground v.1.15,2013-01-01 12:17:00,
2013-01-01 07:19:00,71.7,59.7,30.12,East,79,1.0,7.0,66,0.00,,,0.00,Wunderground v.1.15,2013-01-01 12:19:00,
2013-01-01 07:20:00,71.7,59.7,30.12,ENE,70,5.0,5.0,66,0.00,,,0.00,Wunderground v.1.15,2013-01-01 12:20:00,
2013-01-01 07:21:00,71.7,59.3,30.12,ENE,62,3.0,5.0,65,0.00,,,0.00,Wunderground v.1.15,2013-01-01 12:21:00,
2013-01-01 07:22:00,71.7,59.3,30.12,SSE,166,1.0,5.0,65,0.00,,,0.00,Wunderground v.1.15,2013-01-01 12:22:00,
2013-01-01 07:24:00,71.8,59.4,30.12,ESE,108,1.0,5.0,65,0.00,,,0.00,Wunderground v.1.15,2013-01-01 12:24:00,
2013-01-01 07:25:00,71.8,59.8,30.12,East,97,4.0,5.0,66,0.00,,,0.00,Wunderground v.1.15,2013-01-01 12:25:00,
2013-01-01 07:27:00,71.8,59.4,30.12,ENE,77,4.0,5.0,65,0.00,,,0.00,Wunderground v.1.15,2013-01-01 12:27:00,
2013-01-01 07:29:00,71.8,59.4,30.13,East,88,6.0,7.0,65,0.00,,,0.00,Wunderground v.1.15,2013-01-01 12:29:00,
2013-01-01 07:31:00,71.8,59.4,30.13,SE,135,6.0,8.0,65,0.00,,,0.00,Wunderground v.1.15,2013-01-01 12:31:00,
2013-01-01 07:32:00,71.9,59.5,30.13,NE,48,2.0,8.0,65,0.00,,,0.00,Wunderground v.1.15,2013-01-01 12:32:00,
2013-01-01 07:33:00,71.9,59.5,30.13,ESE,106,2.0,8.0,65,0.00,,,0.00,Wunderground v.1.15,2013-01-01 12:33:00,
2013-01-01 07:34:00,71.9,59.5,30.13,East,86,3.0,8.0,65,0.00,,,0.00,Wunderground v.1.15,2013-01-01 12:34:00,
2013-01-01 07:36:00,72.0,59.6,30.13,East,93,0.0,8.0,65,0.00,,,0.00,Wunderground v.1.15,2013-01-01 12:36:00,
2013-01-01 07:37:00,72.0,60.0,30.13,ESE,102,5.0,8.0,66,0.00,,,0.00,Wunderground v.1.15,2013-01-01 12:37:00,
2013-01-01 07:38:00,72.0,59.6,30.13,ESE,111,5.0,8.0,65,0.00,,,0.00,Wunderground v.1.15,2013-01-01 12:38:00,
2013-01-01 07:40:00,72.0,60.0,30.13,East,87,3.0,5.0,66,0.00,,,0.00,Wunderground v.1.15,2013-01-01 12:40:00,
2013-01-01 07:41:00,72.1,60.1,30.13,East,101,3.0,5.0,66,0.00,,,0.00,Wunderground v.1.15,2013-01-01 12:41:00,
2013-01-01 07:42:00,72.1,60.1,30.13,NE,50,4.0,6.0,66,0.00,,,0.00,Wunderground v.1.15,2013-01-01 12:42:00,
2013-01-01 07:43:00,72.1,59.7,30.13,ENE,62,2.0,6.0,65,0.00,,,0.00,Wunderground v.1.15,2013-01-01 12:43:00,
2013-01-01 07:45:00,72.2,59.8,30.13,ESE,116,5.0,7.0,65,0.00,,,0.00,Wunderground v.1.15,2013-01-01 12:45:00,
2013-01-01 07:46:00,72.2,59.8,30.13,ESE,106,4.0,7.0,65,0.00,,,0.00,Wunderground v.1.15,2013-01-01 12:46:00,
2013-01-01 07:47:00,72.2,59.8,30.13,ESE,108,4.0,7.0,65,0.00,,,0.00,Wunderground v.1.15,2013-01-01 12:47:00,
2013-01-01 07:49:00,72.3,59.9,30.13,ESE,106,5.0,7.0,65,0.00,,,0.00,Wunderground v.1.15,2013-01-01 12:49:00,
2013-01-01 07:51:00,72.4,60.0,30.13,ESE,113,3.0,6.0,65,0.00,,,0.00,Wunderground v.1.15,2013-01-01 12:51:00,
2013-01-01 07:52:00,72.4,60.0,30.13,NE,50,5.0,9.0,65,0.00,,,0.00,Wunderground v.1.15,2013-01-01 12:52:00,
2013-01-01 07:54:00,72.5,60.1,30.13,ESE,116,0.0,9.0,65,0.00,,,0.00,Wunderground v.1.15,2013-01-01 12:54:00,
2013-01-01 07:56:00,72.5,60.1,30.13,East,96,3.0,9.0,65,0.00,,,0.00,Wunderground v.1.15,2013-01-01 12:56:00,
2013-01-01 07:57:00,72.5,60.1,30.13,ESE,117,2.0,9.0,65,0.00,,,0.00,Wunderground v.1.15,2013-01-01 12:57:00,
2013-01-01 07:58:00,72.6,60.2,30.13,ESE,116,2.0,9.0,65,0.00,,,0.00,Wunderground v.1.15,2013-01-01 12:58:00,
2013-01-01 07:59:00,72.6,60.2,30.13,SE,124,1.0,9.0,65,0.00,,,0.00,Wunderground v.1.15,2013-01-01 12:59:00,
2013-01-01 08:01:00,72.6,60.6,30.13,SE,143,1.0,10.0,66,0.00,,,0.00,Wunderground v.1.15,2013-01-01 13:01:00,
2013-01-01 08:02:00,72.6,60.6,30.13,ESE,115,6.0,10.0,66,0.00,,,0.00,Wunderground v.1.15,2013-01-01 13:02:00,
2013-01-01 08:03:00,72.6,60.6,30.13,ENE,66,6.0,10.0,66,0.00,,,0.00,Wunderground v.1.15,2013-01-01 13:03:00,
2013-01-01 08:04:00,72.7,60.7,30.13,East,85,2.0,10.0,66,0.00,,,0.00,Wunderground v.1.15,2013-01-01 13:04:00,
2013-01-01 08:06:00,72.8,60.8,30.13,ESE,110,4.0,10.0,66,0.00,,,0.00,Wunderground v.1.15,2013-01-01 13:06:00,
2013-01-01 08:07:00,72.8,61.2,30.13,SSE,148,1.0,10.0,67,0.00,,,0.00,Wunderground v.1.15,2013-01-01 13:07:00,
2013-01-01 08:08:00,72.8,61.2,30.13,SSE,159,3.0,10.0,67,0.00,,,0.00,Wunderground v.1.15,2013-01-01 13:08:00,
2013-01-01 08:09:00,72.9,61.3,30.13,SSE,152,1.0,10.0,67,0.00,,,0.00,Wunderground v.1.15,2013-01-01 13:09:00,
2013-01-01 08:12:00,72.9,61.3,30.13,ESE,115,0.0,5.0,67,0.00,,,0.00,Wunderground v.1.15,2013-01-01 13:12:00,
2013-01-01 08:13:00,72.9,61.3,30.13,SE,137,9.0,9.0,67,0.00,,,0.00,Wunderground v.1.15,2013-01-01 13:13:00,
2013-01-01 08:14:00,72.9,61.7,30.13,SSE,150,4.0,9.0,68,0.00,,,0.00,Wunderground v.1.15,2013-01-01 13:14:00,
2013-01-01 08:17:00,73.0,61.8,30.13,ENE,66,4.0,9.0,68,0.00,,,0.00,Wunderground v.1.15,2013-01-01 13:17:00,
2013-01-01 08:18:00,73.0,61.4,30.13,SE,133,1.0,9.0,67,0.00,,,0.00,Wunderground v.1.15,2013-01-01 13:18:00,
2013-01-01 08:20:00,73.0,61.4,30.13,ESE,117,9.0,9.0,67,0.00,,,0.00,Wunderground v.1.15,2013-01-01 13:20:00,
2013-01-01 08:23:00,73.1,61.1,30.14,NE,46,2.0,9.0,66,0.00,,,0.00,Wunderground v.1.15,2013-01-01 13:23:00,
2013-01-01 08:24:00,73.1,61.1,30.14,East,81,3.0,9.0,66,0.00,,,0.00,Wunderground v.1.15,2013-01-01 13:24:00,
2013-01-01 08:25:00,73.1,61.5,30.14,SE,129,4.0,9.0,67,0.00,,,0.00,Wunderground v.1.15,2013-01-01 13:25:00,
2013-01-01 08:28:00,73.3,61.7,30.14,ENE,73,3.0,9.0,67,0.00,,,0.00,Wunderground v.1.15,2013-01-01 13:28:00,
2013-01-01 08:29:00,73.3,61.7,30.14,East,88,5.0,9.0,67,0.00,,,0.00,Wunderground v.1.15,2013-01-01 13:29:00,
2013-01-01 08:30:00,73.3,61.3,30.14,ESE,115,3.0,5.0,66,0.00,,,0.00,Wunderground v.1.15,2013-01-01 13:30:00,
2013-01-01 08:34:00,73.5,61.4,30.14,ESE,107,2.0,7.0,66,0.00,,,0.00,Wunderground v.1.15,2013-01-01 13:34:00,
2013-01-01 08:35:00,73.6,61.5,30.14,ENE,69,3.0,7.0,66,0.00,,,0.00,Wunderground v.1.15,2013-01-01 13:35:00,
2013-01-01 08:39:00,73.7,61.2,30.14,ENE,75,2.0,7.0,65,0.00,,,0.00,Wunderground v.1.15,2013-01-01 13:39:00,
2013-01-01 08:40:00,73.8,61.3,30.14,ESE,110,5.0,8.0,65,0.00,,,0.00,Wunderground v.1.15,2013-01-01 13:40:00,
2013-01-01 08:44:00,73.8,61.3,30.14,ESE,107,6.0,13.0,65,0.00,,,0.00,Wunderground v.1.15,2013-01-01 13:44:00,
2013-01-01 08:45:00,73.8,61.3,30.14,ESE,108,5.0,13.0,65,0.00,,,0.00,Wunderground v.1.15,2013-01-01 13:45:00,
2013-01-01 08:49:00,73.7,61.6,30.14,ESE,105,10.0,13.0,66,0.00,,,0.00,Wunderground v.1.15,2013-01-01 13:49:00,
2013-01-01 08:50:00,73.7,61.2,30.14,ENE,71,4.0,6.0,65,0.00,,,0.00,Wunderground v.1.15,2013-01-01 13:50:00,
2013-01-01 08:51:00,73.7,61.2,30.14,ENE,71,2.0,6.0,65,0.00,,,0.00,Wunderground v.1.15,2013-01-01 13:51:00,
2013-01-01 08:54:00,73.7,61.6,30.14,ESE,102,2.0,11.0,66,0.00,,,0.00,Wunderground v.1.15,2013-01-01 13:54:00,
2013-01-01 08:56:00,73.7,62.1,30.14,SE,140,2.0,11.0,67,0.00,,,0.00,Wunderground v.1.15,2013-01-01 13:56:00,
2013-01-01 08:59:00,73.8,61.7,30.14,SE,133,5.0,5.0,66,0.00,,,0.00,Wunderground v.1.15,2013-01-01 13:59:00,
2013-01-01 09:00:00,73.8,61.7,30.14,ENE,63,5.0,5.0,66,0.00,,,0.00,Wunderground v.1.15,2013-01-01 14:00:00,
2013-01-01 09:01:00,73.8,61.7,30.14,East,99,9.0,9.0,66,0.00,,,0.00,Wunderground v.1.15,2013-01-01 14:01:00,
2013-01-01 09:04:00,73.9,61.8,30.14,East,87,4.0,9.0,66,0.00,,,0.00,Wunderground v.1.15,2013-01-01 14:04:00,
2013-01-01 09:05:00,73.9,61.8,30.14,ESE,106,2.0,9.0,66,0.00,,,0.00,Wunderground v.1.15,2013-01-01 14:05:00,
2013-01-01 09:06:00,74.0,61.9,30.14,East,85,1.0,9.0,66,0.00,,,0.00,Wunderground v.1.15,2013-01-01 14:06:00,
2013-01-01 09:07:00,74.0,61.9,30.14,ESE,109,2.0,9.0,66,0.00,,,0.00,Wunderground v.1.15,2013-01-01 14:07:00,
2013-01-01 09:09:00,74.0,61.9,30.14,East,89,2.0,4.0,66,0.00,,,0.00,Wunderground v.1.15,2013-01-01 14:09:00,
2013-01-01 09:10:00,74.0,61.9,30.14,ENE,61,3.0,4.0,66,0.00,,,0.00,Wunderground v.1.15,2013-01-01 14:10:00,
2013-01-01 09:11:00,74.0,61.9,30.14,ESE,113,4.0,6.0,66,0.00,,,0.00,Wunderground v.1.15,2013-01-01 14:11:00,
2013-01-01 09:12:00,74.0,61.9,30.14,East,88,4.0,6.0,66,0.00,,,0.00,Wunderground v.1.15,2013-01-01 14:12:00,
2013-01-01 09:15:00,74.0,61.9,30.14,ESE,109,2.0,9.0,66,0.00,,,0.00,Wunderground v.1.15,2013-01-01 14:15:00,
2013-01-01 09:17:00,74.2,62.1,30.15,ENE,65,0.0,9.0,66,0.00,,,0.00,Wunderground v.1.15,2013-01-01 14:17:00,
2013-01-01 09:20:00,74.6,62.1,30.15,SSE,159,2.0,3.0,65,0.00,,,0.00,Wunderground v.1.15,2013-01-01 14:20:00,
2013-01-01 09:21:00,74.7,62.1,30.15,NE,56,2.0,3.0,65,0.00,,,0.00,Wunderground v.1.15,2013-01-01 14:21:00,
2013-01-01 09:22:00,74.9,62.3,30.15,ENE,75,4.0,8.0,65,0.00,,,0.00,Wunderground v.1.15,2013-01-01 14:22:00,
2013-01-01 09:25:00,75.2,61.7,30.15,ENE,59,4.0,10.0,63,0.00,,,0.00,Wunderground v.1.15,2013-01-01 14:25:00,
2013-01-01 09:26:00,75.2,61.7,30.15,East,101,3.0,10.0,63,0.00,,,0.00,Wunderground v.1.15,2013-01-01 14:26:00,
2013-01-01 09:28:00,75.1,61.6,30.15,ESE,115,4.0,10.0,63,0.00,,,0.00,Wunderground v.1.15,2013-01-01 14:28:00,
2013-01-01 09:30:00,75.0,61.5,30.15,ESE,116,1.0,5.0,63,0.00,,,0.00,Wunderground v.1.15,2013-01-01 14:30:00,
2013-01-01 09:31:00,74.9,61.9,30.15,ESE,106,4.0,5.0,64,0.00,,,0.00,Wunderground v.1.15,2013-01-01 14:31:00,
2013-01-01 09:33:00,74.8,61.8,30.15,SE,146,9.0,9.0,64,0.00,,,0.00,Wunderground v.1.15,2013-01-01 14:33:00,
2013-01-01 09:35:00,74.8,61.4,30.15,SE,146,3.0,9.0,63,0.00,,,0.00,Wunderground v.1.15,2013-01-01 14:35:00,
2013-01-01 09:36:00,74.7,61.7,30.15,SSE,148,5.0,9.0,64,0.00,,,0.00,Wunderground v.1.15,2013-01-01 14:36:00,
2013-01-01 09:38:00,74.7,61.7,30.15,ESE,119,2.0,9.0,64,0.00,,,0.00,Wunderground v.1.15,2013-01-01 14:38:00,
2013-01-01 09:41:00,74.7,61.7,30.15,South,179,3.0,5.0,64,0.00,,,0.00,Wunderground v.1.15,2013-01-01 14:41:00,
2013-01-01 09:43:00,74.8,62.2,30.15,SSE,157,3.0,5.0,65,0.00,,,0.00,Wunderground v.1.15,2013-01-01 14:43:00,
2013-01-01 09:46:00,75.1,62.5,30.15,ESE,108,8.0,10.0,65,0.00,,,0.00,Wunderground v.1.15,2013-01-01 14:46:00,
2013-01-01 09:47:00,75.2,61.7,30.15,SE,138,5.0,10.0,63,0.00,,,0.00,Wunderground v.1.15,2013-01-01 14:47:00,
2013-01-01 09:48:00,75.3,61.8,30.15,South,182,4.0,10.0,63,0.00,,,0.00,Wunderground v.1.15,2013-01-01 14:48:00,
2013-01-01 09:49:00,75.3,61.4,30.15,SSE,163,5.0,10.0,62,0.00,,,0.00,Wunderground v.1.15,2013-01-01 14:49:00,
2013-01-01 09:51:00,75.4,61.5,30.15,East,92,3.0,10.0,62,0.00,,,0.00,Wunderground v.1.15,2013-01-01 14:51:00,
2013-01-01 09:52:00,75.4,61.5,30.15,SSE,167,1.0,10.0,62,0.00,,,0.00,Wunderground v.1.15,2013-01-01 14:52:00,
2013-01-01 09:53:00,75.4,61.9,30.15,SSE,162,3.0,10.0,63,0.00,,,0.00,Wunderground v.1.15,2013-01-01 14:53:00,
2013-01-01 09:54:00,75.4,61.9,30.15,South,172,6.0,10.0,63,0.00,,,0.00,Wunderground v.1.15,2013-01-01 14:54:00,
2013-01-01 09:56:00,75.6,62.1,30.15,SE,131,3.0,10.0,63,0.00,,,0.00,Wunderground v.1.15,2013-01-01 14:56:00,
2013-01-01 09:58:00,75.7,62.2,30.15,SE,140,4.0,10.0,63,0.00,,,0.00,Wunderground v.1.15,2013-01-01 14:58:00,
2013-01-01 09:59:00,75.8,62.3,30.15,SE,140,3.0,10.0,63,0.00,,,0.00,Wunderground v.1.15,2013-01-01 14:59:00,
2013-01-01 10:02:00,76.3,61.9,30.15,SSE,167,4.0,12.0,61,0.00,,,0.00,Wunderground v.1.15,2013-01-01 15:02:00,
2013-01-01 10:03:00,76.5,62.0,30.15,SE,129,2.0,12.0,61,0.00,,,0.00,Wunderground v.1.15,2013-01-01 15:03:00,
2013-01-01 10:04:00,76.7,62.2,30.15,SE,126,4.0,12.0,61,0.00,,,0.00,Wunderground v.1.15,2013-01-01 15:04:00,
2013-01-01 10:07:00,77.1,62.6,30.15,South,169,1.0,12.0,61,0.00,,,0.00,Wunderground v.1.15,2013-01-01 15:07:00,
2013-01-01 10:08:00,77.1,62.1,30.15,SSE,156,1.0,12.0,60,0.00,,,0.00,Wunderground v.1.15,2013-01-01 15:08:00,
2013-01-01 10:09:00,77.2,62.2,30.15,SSE,162,7.0,7.0,60,0.00,,,0.00,Wunderground v.1.15,2013-01-01 15:09:00,
2013-01-01 10:10:00,77.2,62.2,30.15,South,169,7.0,13.0,60,0.00,,,0.00,Wunderground v.1.15,2013-01-01 15:10:00,
2013-01-01 10:12:00,77.2,61.8,30.15,SSE,147,3.0,13.0,59,0.00,,,0.00,Wunderground v.1.15,2013-01-01 15:12:00,
2013-01-01 10:13:00,77.2,61.8,30.15,ESE,109,9.0,13.0,59,0.00,,,0.00,Wunderground v.1.15,2013-01-01 15:13:00,
2013-01-01 10:15:00,77.1,62.1,30.15,SSE,149,2.0,13.0,60,0.00,,,0.00,Wunderground v.1.15,2013-01-01 15:15:00,
2013-01-01 10:18:00,76.9,62.4,30.14,SSE,162,4.0,13.0,61,0.00,,,0.00,Wunderground v.1.15,2013-01-01 15:18:00,
2013-01-01 10:20:00,76.8,62.3,30.14,East,101,2.0,4.0,61,0.00,,,0.00,Wunderground v.1.15,2013-01-01 15:20:00,
2013-01-01 10:23:00,76.6,62.1,30.14,ESE,121,2.0,7.0,61,0.00,,,0.00,Wunderground v.1.15,2013-01-01 15:23:00,
2013-01-01 10:25:00,76.5,62.5,30.14,ESE,106,0.0,7.0,62,0.00,,,0.00,Wunderground v.1.15,2013-01-01 15:25:00,
2013-01-01 10:26:00,76.5,62.5,30.14,SE,145,0.0,7.0,62,0.00,,,0.00,Wunderground v.1.15,2013-01-01 15:26:00,
2013-01-01 10:28:00,76.7,62.2,30.14,ESE,117,2.0,7.0,61,0.00,,,0.00,Wunderground v.1.15,2013-01-01 15:28:00,
2013-01-01 10:30:00,76.9,62.9,30.14,South,185,1.0,3.0,62,0.00,,,0.00,Wunderground v.1.15,2013-01-01 15:30:00,
2013-01-01 10:32:00,77.0,63.0,30.14,ESE,108,3.0,3.0,62,0.00,,,0.00,Wunderground v.1.15,2013-01-01 15:32:00,
2013-01-01 10:33:00,77.0,62.5,30.14,ENE,71,3.0,4.0,61,0.00,,,0.00,Wunderground v.1.15,2013-01-01 15:33:00,
2013-01-01 10:35:00,77.0,62.5,30.14,SE,135,5.0,5.0,61,0.00,,,0.00,Wunderground v.1.15,2013-01-01 15:35:00,
2013-01-01 10:37:00,76.9,62.4,30.14,East,93,3.0,10.0,61,0.00,,,0.00,Wunderground v.1.15,2013-01-01 15:37:00,
2013-01-01 10:38:00,76.7,62.7,30.14,SE,137,0.0,10.0,62,0.00,,,0.00,Wunderground v.1.15,2013-01-01 15:38:00,
2013-01-01 10:40:00,76.6,62.6,30.14,SE,124,4.0,10.0,62,0.00,,,0.00,Wunderground v.1.15,2013-01-01 15:40:00,
2013-01-01 10:42:00,76.6,62.6,30.14,SSE,152,6.0,10.0,62,0.00,,,0.00,Wunderground v.1.15,2013-01-01 15:42:00,
2013-01-01 10:43:00,76.5,63.0,30.14,NE,51,2.0,10.0,63,0.00,,,0.00,Wunderground v.1.15,2013-01-01 15:43:00,
2013-01-01 10:46:00,76.5,63.4,30.14,SSE,155,4.0,10.0,64,0.00,,,0.00,Wunderground v.1.15,2013-01-01 15:46:00,
2013-01-01 10:47:00,76.5,63.4,30.14,East,101,4.0,10.0,64,0.00,,,0.00,Wunderground v.1.15,2013-01-01 15:47:00,
2013-01-01 10:48:00,76.5,63.4,30.14,SE,139,3.0,10.0,64,0.00,,,0.00,Wunderground v.1.15,2013-01-01 15:48:00,
2013-01-01 10:51:00,76.6,63.5,30.14,East,79,0.0,10.0,64,0.00,,,0.00,Wunderground v.1.15,2013-01-01 15:51:00,
2013-01-01 10:53:00,76.7,63.2,30.13,East,85,7.0,10.0,63,0.00,,,0.00,Wunderground v.1.15,2013-01-01 15:53:00,
2013-01-01 10:54:00,76.8,63.2,30.13,SE,128,6.0,10.0,63,0.00,,,0.00,Wunderground v.1.15,2013-01-01 15:54:00,
2013-01-01 10:56:00,76.9,62.9,30.13,SE,127,4.0,10.0,62,0.00,,,0.00,Wunderground v.1.15,2013-01-01 15:56:00,
2013-01-01 10:58:00,77.0,63.0,30.13,ESE,120,4.0,10.0,62,0.00,,,0.00,Wunderground v.1.15,2013-01-01 15:58:00,
2013-01-01 10:59:00,77.1,63.1,30.13,SSE,162,4.0,11.0,62,0.00,,,0.00,Wunderground v.1.15,2013-01-01 15:59:00,
2013-01-01 11:01:00,77.2,63.2,30.13,SE,132,3.0,8.0,62,0.00,,,0.00,Wunderground v.1.15,2013-01-01 16:01:00,
2013-01-01 11:03:00,77.2,63.2,30.13,SE,140,2.0,11.0,62,0.00,,,0.00,Wunderground v.1.15,2013-01-01 16:03:00,
2013-01-01 11:04:00,77.2,63.2,30.13,SE,137,6.0,11.0,62,0.00,,,0.00,Wunderground v.1.15,2013-01-01 16:04:00,
2013-01-01 11:05:00,77.2,63.2,30.13,East,88,4.0,11.0,62,0.00,,,0.00,Wunderground v.1.15,2013-01-01 16:05:00,
2013-01-01 11:07:00,77.1,63.1,30.13,SSE,148,5.0,11.0,62,0.00,,,0.00,Wunderground v.1.15,2013-01-01 16:07:00,
2013-01-01 11:08:00,77.1,63.1,30.13,SE,146,9.0,11.0,62,0.00,,,0.00,Wunderground v.1.15,2013-01-01 16:08:00,
2013-01-01 11:09:00,77.1,63.1,30.12,SE,144,5.0,11.0,62,0.00,,,0.00,Wunderground v.1.15,2013-01-01 16:09:00,
2013-01-01 11:10:00,77.1,63.1,30.12,South,169,5.0,7.0,62,0.00,,,0.00,Wunderground v.1.15,2013-01-01 16:10:00,
2013-01-01 11:12:00,77.1,63.1,30.12,SE,135,7.0,16.0,62,0.00,,,0.00,Wunderground v.1.15,2013-01-01 16:12:00,
2013-01-01 11:14:00,77.1,63.1,30.12,SE,133,6.0,16.0,62,0.00,,,0.00,Wunderground v.1.15,2013-01-01 16:14:00,
2013-01-01 11:15:00,77.1,63.1,30.12,SSE,167,0.0,16.0,62,0.00,,,0.00,Wunderground v.1.15,2013-01-01 16:15:00,
2013-01-01 11:17:00,77.1,63.1,30.12,NNE,33,3.0,16.0,62,0.00,,,0.00,Wunderground v.1.15,2013-01-01 16:17:00,
2013-01-01 11:19:00,77.1,62.6,30.12,SSE,150,6.0,16.0,61,0.00,,,0.00,Wunderground v.1.15,2013-01-01 16:19:00,
2013-01-01 11:20:00,77.1,62.6,30.12,SE,138,3.0,10.0,61,0.00,,,0.00,Wunderground v.1.15,2013-01-01 16:20:00,
2013-01-01 11:23:00,77.1,63.1,30.12,SE,125,2.0,10.0,62,0.00,,,0.00,Wunderground v.1.15,2013-01-01 16:23:00,
2013-01-01 11:24:00,77.0,63.0,30.12,South,171,5.0,10.0,62,0.00,,,0.00,Wunderground v.1.15,2013-01-01 16:24:00,
2013-01-01 11:25:00,77.1,63.1,30.12,ENE,59,4.0,10.0,62,0.00,,,0.00,Wunderground v.1.15,2013-01-01 16:25:00,
2013-01-01 11:26:00,77.0,63.0,30.12,ESE,118,7.0,10.0,62,0.00,,,0.00,Wunderground v.1.15,2013-01-01 16:26:00,
2013-01-01 11:28:00,77.1,63.1,30.12,SSE,160,3.0,10.0,62,0.00,,,0.00,Wunderground v.1.15,2013-01-01 16:28:00,
2013-01-01 11:29:00,77.1,63.5,30.12,SSE,158,2.0,4.0,63,0.00,,,0.00,Wunderground v.1.15,2013-01-01 16:29:00,
2013-01-01 11:30:00,77.1,63.5,30.12,SSE,152,1.0,4.0,63,0.00,,,0.00,Wunderground v.1.15,2013-01-01 16:30:00,
2013-01-01 11:31:00,77.2,63.2,30.12,South,179,7.0,12.0,62,0.00,,,0.00,Wunderground v.1.15,2013-01-01 16:31:00,
2013-01-01 11:33:00,77.4,62.9,30.12,ESE,108,6.0,12.0,61,0.00,,,0.00,Wunderground v.1.15,2013-01-01 16:33:00,
2013-01-01 11:35:00,77.4,62.9,30.12,South,170,11.0,12.0,61,0.00,,,0.00,Wunderground v.1.15,2013-01-01 16:35:00,
2013-01-01 11:36:00,77.4,62.9,30.12,ENE,77,0.0,12.0,61,0.00,,,0.00,Wunderground v.1.15,2013-01-01 16:36:00,
2013-01-01 11:38:00,77.5,63.0,30.12,SSE,167,9.0,12.0,61,0.00,,,0.00,Wunderground v.1.15,2013-01-01 16:38:00,
2013-01-01 11:40:00,77.6,62.1,30.12,ESE,110,6.0,11.0,59,0.00,,,0.00,Wunderground v.1.15,2013-01-01 16:40:00,
2013-01-01 11:41:00,77.7,61.7,30.12,East,92,1.0,11.0,58,0.00,,,0.00,Wunderground v.1.15,2013-01-01 16:41:00,
2013-01-01 11:44:00,77.8,62.3,30.12,South,170,2.0,14.0,59,0.00,,,0.00,Wunderground v.1.15,2013-01-01 16:44:00,
2013-01-01 11:45:00,77.9,62.4,30.12,South,187,9.0,14.0,59,0.00,,,0.00,Wunderground v.1.15,2013-01-01 16:45:00,
2013-01-01 11:46:00,78.0,62.0,30.12,SSE,163,9.0,14.0,58,0.00,,,0.00,Wunderground v.1.15,2013-01-01 16:46:00,
2013-01-01 11:49:00,78.1,62.6,30.12,SE,136,4.0,14.0,59,0.00,,,0.00,Wunderground v.1.15,2013-01-01 16:49:00,
2013-01-01 11:50:00,78.2,62.7,30.12,SE,131,4.0,6.0,59,0.00,,,0.00,Wunderground v.1.15,2013-01-01 16:50:00,
2013-01-01 11:51:00,78.3,62.3,30.12,South,171,9.0,10.0,58,0.00,,,0.00,Wunderground v.1.15,2013-01-01 16:51:00,
2013-01-01 11:54:00,78.4,62.4,30.12,South,181,7.0,11.0,58,0.00,,,0.00,Wunderground v.1.15,2013-01-01 16:54:00,
2013-01-01 11:55:00,78.4,62.4,30.12,SSE,152,7.0,12.0,58,0.00,,,0.00,Wunderground v.1.15,2013-01-01 16:55:00,
2013-01-01 11:56:00,78.5,62.5,30.11,ESE,107,10.0,12.0,58,0.00,,,0.00,Wunderground v.1.15,2013-01-01 16:56:00,
2013-01-01 11:59:00,78.5,62.5,30.11,SSE,156,2.0,12.0,58,0.00,,,0.00,Wunderground v.1.15,2013-01-01 16:59:00,
2013-01-01 12:00:00,78.4,62.4,30.11,SSE,152,9.0,12.0,58,0.00,,,0.00,Wunderground v.1.15,2013-01-01 17:00:00,
2013-01-01 12:01:00,78.4,61.9,30.11,SE,146,6.0,12.0,57,0.00,,,0.00,Wunderground v.1.15,2013-01-01 17:01:00,
2013-01-01 12:02:00,78.4,62.4,30.11,ESE,102,4.0,12.0,58,0.00,,,0.00,Wunderground v.1.15,2013-01-01 17:02:00,
2013-01-01 12:04:00,78.4,62.4,30.11,East,83,9.0,12.0,58,0.00,,,0.00,Wunderground v.1.15,2013-01-01 17:04:00,
2013-01-01 12:06:00,78.4,62.4,30.11,SE,137,4.0,12.0,58,0.00,,,0.00,Wunderground v.1.15,2013-01-01 17:06:00,
2013-01-01 12:07:00,78.3,62.8,30.11,ESE,102,5.0,12.0,59,0.00,,,0.00,Wunderground v.1.15,2013-01-01 17:07:00,
2013-01-01 12:09:00,78.1,62.6,30.11,SSE,153,2.0,12.0,59,0.00,,,0.00,Wunderground v.1.15,2013-01-01 17:09:00,
2013-01-01 12:11:00,78.1,63.1,30.10,NE,48,2.0,5.0,60,0.00,,,0.00,Wunderground v.1.15,2013-01-01 17:11:00,
2013-01-01 12:12:00,78.1,63.1,30.10,SSE,150,10.0,13.0,60,0.00,,,0.00,Wunderground v.1.15,2013-01-01 17:12:00,
2013-01-01 12:14:00,78.2,62.2,30.10,SSE,152,6.0,13.0,58,0.00,,,0.00,Wunderground v.1.15,2013-01-01 17:14:00,
2013-01-01 12:17:00,78.3,62.8,30.10,ENE,75,1.0,13.0,59,0.00,,,0.00,Wunderground v.1.15,2013-01-01 17:17:00,
2013-01-01 12:19:00,78.4,62.4,30.09,South,169,4.0,13.0,58,0.00,,,0.00,Wunderground v.1.15,2013-01-01 17:19:00,
2013-01-01 12:22:00,78.3,62.8,30.09,SSE,163,1.0,7.0,59,0.00,,,0.00,Wunderground v.1.15,2013-01-01 17:22:00,
2013-01-01 12:24:00,78.4,62.9,30.09,SSE,163,4.0,11.0,59,0.00,,,0.00,Wunderground v.1.15,2013-01-01 17:24:00,
2013-01-01 12:27:00,78.6,63.1,30.09,SSW,212,4.0,17.0,59,0.00,,,0.00,Wunderground v.1.15,2013-01-01 17:27:00,
2013-01-01 12:28:00,78.8,62.8,30.09,South,171,7.0,17.0,58,0.00,,,0.00,Wunderground v.1.15,2013-01-01 17:28:00,
2013-01-01 12:30:00,79.1,63.1,30.09,SSE,160,3.0,6.0,58,0.00,,,0.00,Wunderground v.1.15,2013-01-01 17:30:00,
2013-01-01 12:32:00,79.3,63.2,30.09,SSE,154,6.0,12.0,58,0.00,,,0.00,Wunderground v.1.15,2013-01-01 17:32:00,
2013-01-01 12:33:00,79.4,62.8,30.09,SSW,192,3.0,12.0,57,0.00,,,0.00,Wunderground v.1.15,2013-01-01 17:33:00,
2013-01-01 12:35:00,79.4,63.3,30.09,NNE,31,4.0,12.0,58,0.00,,,0.00,Wunderground v.1.15,2013-01-01 17:35:00,
2013-01-01 12:38:00,79.2,63.1,30.09,NE,44,2.0,12.0,58,0.00,,,0.00,Wunderground v.1.15,2013-01-01 17:38:00,
2013-01-01 12:41:00,79.1,63.5,30.08,SSE,161,7.0,12.0,59,0.00,,,0.00,Wunderground v.1.15,2013-01-01 17:41:00,
2013-01-01 12:43:00,79.3,62.7,30.08,SE,143,2.0,12.0,57,0.00,,,0.00,Wunderground v.1.15,2013-01-01 17:43:00,
2013-01-01 12:44:00,79.4,62.8,30.08,South,171,5.0,13.0,57,0.00,,,0.00,Wunderground v.1.15,2013-01-01 17:44:00,
2013-01-01 12:46:00,79.6,62.5,30.08,ENE,68,4.0,13.0,56,0.00,,,0.00,Wunderground v.1.15,2013-01-01 17:46:00,
2013-01-01 12:48:00,79.7,62.6,30.08,SSE,153,4.0,13.0,56,0.00,,,0.00,Wunderground v.1.15,2013-01-01 17:48:00,
2013-01-01 12:49:00,79.8,63.2,30.08,South,182,13.0,13.0,57,0.00,,,0.00,Wunderground v.1.15,2013-01-01 17:49:00,
2013-01-01 12:52:00,79.7,63.1,30.08,SSE,162,3.0,13.0,57,0.00,,,0.00,Wunderground v.1.15,2013-01-01 17:52:00,
2013-01-01 12:53:00,79.7,63.1,30.07,South,186,3.0,13.0,57,0.00,,,0.00,Wunderground v.1.15,2013-01-01 17:53:00,
2013-01-01 12:55:00,79.7,63.1,30.07,East,82,3.0,13.0,57,0.00,,,0.00,Wunderground v.1.15,2013-01-01 17:55:00,
2013-01-01 12:57:00,79.7,63.1,30.07,SSE,150,2.0,13.0,57,0.00,,,0.00,Wunderground v.1.15,2013-01-01 17:57:00,
2013-01-01 12:58:00,79.9,63.8,30.07,SE,144,5.0,13.0,58,0.00,,,0.00,Wunderground v.1.15,2013-01-01 17:58:00,
2013-01-01 13:00:00,80.2,63.6,30.07,SSE,156,10.0,12.0,57,0.00,,,0.00,Wunderground v.1.15,2013-01-01 18:00:00,
2013-01-01 13:02:00,80.3,63.2,30.07,SSE,152,5.0,14.0,56,0.00,,,0.00,Wunderground v.1.15,2013-01-01 18:02:00,
2013-01-01 13:03:00,80.2,63.1,30.07,SSE,160,4.0,14.0,56,0.00,,,0.00,Wunderground v.1.15,2013-01-01 18:03:00,
2013-01-01 13:04:00,80.2,63.1,30.07,South,173,4.0,14.0,56,0.00,,,0.00,Wunderground v.1.15,2013-01-01 18:04:00,
2013-01-01 13:05:00,80.2,63.6,30.06,SSE,162,9.0,14.0,57,0.00,,,0.00,Wunderground v.1.15,2013-01-01 18:05:00,
2013-01-01 13:08:00,80.2,63.6,30.06,ESE,114,1.0,14.0,57,0.00,,,0.00,Wunderground v.1.15,2013-01-01 18:08:00,
2013-01-01 13:09:00,80.1,63.0,30.06,SSE,148,6.0,14.0,56,0.00,,,0.00,Wunderground v.1.15,2013-01-01 18:09:00,
2013-01-01 13:10:00,80.0,63.4,30.06,South,185,5.0,10.0,57,0.00,,,0.00,Wunderground v.1.15,2013-01-01 18:10:00,
2013-01-01 13:13:00,79.8,63.7,30.06,South,185,9.0,11.0,58,0.00,,,0.00,Wunderground v.1.15,2013-01-01 18:13:00,
2013-01-01 13:14:00,79.7,63.1,30.06,SSE,161,9.0,18.0,57,0.00,,,0.00,Wunderground v.1.15,2013-01-01 18:14:00,
2013-01-01 13:16:00,79.6,63.0,30.06,SSE,161,3.0,18.0,57,0.00,,,0.00,Wunderground v.1.15,2013-01-01 18:16:00,
2013-01-01 13:18:00,79.6,63.5,30.06,East,90,7.0,18.0,58,0.00,,,0.00,Wunderground v.1.15,2013-01-01 18:18:00,
2013-01-01 13:19:00,79.6,63.0,30.06,South,181,3.0,18.0,57,0.00,,,0.00,Wunderground v.1.15,2013-01-01 18:19:00,
2013-01-01 13:20:00,79.6,63.5,30.06,SSE,148,6.0,8.0,58,0.00,,,0.00,Wunderground v.1.15,2013-01-01 18:20:00,
2013-01-01 13:21:00,79.7,63.6,30.06,SSW,212,2.0,9.0,58,0.00,,,0.00,Wunderground v.1.15,2013-01-01 18:21:00,
2013-01-01 13:23:00,79.8,63.7,30.06,South,173,4.0,15.0,58,0.00,,,0.00,Wunderground v.1.15,2013-01-01 18:23:00,
2013-01-01 13:24:00,79.9,63.8,30.06,SSE,153,3.0,16.0,58,0.00,,,0.00,Wunderground v.1.15,2013-01-01 18:24:00,
2013-01-01 13:25:00,79.9,63.8,30.06,SSE,150,4.0,16.0,58,0.00,,,0.00,Wunderground v.1.15,2013-01-01 18:25:00,
2013-01-01 13:27:00,80.1,63.5,30.06,SSE,152,14.0,16.0,57,0.00,,,0.00,Wunderground v.1.15,2013-01-01 18:27:00,
2013-01-01 13:28:00,80.2,63.1,30.06,South,182,11.0,16.0,56,0.00,,,0.00,Wunderground v.1.15,2013-01-01 18:28:00,
2013-01-01 13:30:00,80.2,63.1,30.06,South,177,3.0,6.0,56,0.00,,,0.00,Wunderground v.1.15,2013-01-01 18:30:00,
2013-01-01 13:31:00,80.2,63.6,30.06,SSW,192,3.0,9.0,57,0.00,,,0.00,Wunderground v.1.15,2013-01-01 18:31:00,
2013-01-01 13:32:00,80.2,63.6,30.06,SSE,148,6.0,9.0,57,0.00,,,0.00,Wunderground v.1.15,2013-01-01 18:32:00,
2013-01-01 13:34:00,80.3,63.2,30.05,SSE,164,2.0,10.0,56,0.00,,,0.00,Wunderground v.1.15,2013-01-01 18:34:00,
2013-01-01 13:35:00,80.3,63.7,30.06,SSE,150,3.0,10.0,57,0.00,,,0.00,Wunderground v.1.15,2013-01-01 18:35:00,
2013-01-01 13:36:00,80.3,63.2,30.05,ENE,58,5.0,10.0,56,0.00,,,0.00,Wunderground v.1.15,2013-01-01 18:36:00,
2013-01-01 13:37:00,80.2,63.6,30.05,SW,223,2.0,10.0,57,0.00,,,0.00,Wunderground v.1.15,2013-01-01 18:37:00,
2013-01-01 13:39:00,80.2,63.6,30.05,East,82,1.0,4.0,57,0.00,,,0.00,Wunderground v.1.15,2013-01-01 18:39:00,
2013-01-01 13:41:00,80.2,63.6,30.05,SE,131,9.0,10.0,57,0.00,,,0.00,Wunderground v.1.15,2013-01-01 18:41:00,
2013-01-01 13:43:00,80.5,63.9,30.05,South,174,6.0,11.0,57,0.00,,,0.00,Wunderground v.1.15,2013-01-01 18:43:00,
2013-01-01 13:44:00,80.7,64.1,30.05,SE,137,7.0,13.0,57,0.00,,,0.00,Wunderground v.1.15,2013-01-01 18:44:00,
2013-01-01 13:46:00,80.8,63.6,30.06,SE,138,5.0,13.0,56,0.00,,,0.00,Wunderground v.1.15,2013-01-01 18:46:00,
2013-01-01 13:48:00,80.8,63.6,30.06,SSE,158,4.0,14.0,56,0.00,,,0.00,Wunderground v.1.15,2013-01-01 18:48:00,
2013-01-01 13:49:00,80.7,63.5,30.05,East,83,4.0,6.0,56,0.00,,,0.00,Wunderground v.1.15,2013-01-01 18:49:00,
2013-01-01 14:35:00,78.6,63.6,30.05,South,177,2.0,14.0,60,0.00,,,0.00,Wunderground v.1.15,2013-01-01 19:35:00,
2013-01-01 14:40:00,78.5,63.9,30.05,ESE,120,1.0,5.0,61,0.00,,,0.00,Wunderground v.1.15,2013-01-01 19:40:00,
2013-01-01 14:41:00,78.4,63.8,30.05,SE,124,3.0,5.0,61,0.00,,,0.00,Wunderground v.1.15,2013-01-01 19:41:00,
2013-01-01 14:46:00,78.3,64.2,30.05,ESE,118,7.0,7.0,62,0.00,,,0.00,Wunderground v.1.15,2013-01-01 19:46:00,
2013-01-01 14:47:00,78.3,64.2,30.05,SSE,166,6.0,7.0,62,0.00,,,0.00,Wunderground v.1.15,2013-01-01 19:47:00,
2013-01-01 14:51:00,78.3,63.7,30.05,SSE,149,7.0,12.0,61,0.00,,,0.00,Wunderground v.1.15,2013-01-01 19:51:00,
2013-01-01 14:52:00,78.3,63.7,30.05,SSE,162,1.0,12.0,61,0.00,,,0.00,Wunderground v.1.15,2013-01-01 19:52:00,
2013-01-01 14:56:00,78.1,63.6,30.05,West,267,3.0,12.0,61,0.00,,,0.00,Wunderground v.1.15,2013-01-01 19:56:00,
2013-01-01 14:57:00,78.1,63.6,30.05,SSE,156,7.0,12.0,61,0.00,,,0.00,Wunderground v.1.15,2013-01-01 19:57:00,
2013-01-01 15:01:00,78.0,64.4,30.04,South,179,2.0,9.0,63,0.00,,,0.00,Wunderground v.1.15,2013-01-01 20:01:00,
2013-01-01 15:02:00,77.9,64.3,30.04,SSE,160,6.0,9.0,63,0.00,,,0.00,Wunderground v.1.15,2013-01-01 20:02:00,
2013-01-01 15:06:00,77.8,64.2,30.04,SSE,156,5.0,12.0,63,0.00,,,0.00,Wunderground v.1.15,2013-01-01 20:06:00,
2013-01-01 15:07:00,77.8,64.2,30.05,SE,139,1.0,12.0,63,0.00,,,0.00,Wunderground v.1.15,2013-01-01 20:07:00,
2013-01-01 15:12:00,77.7,64.5,30.04,SSE,160,1.0,5.0,64,0.00,,,0.00,Wunderground v.1.15,2013-01-01 20:12:00,
2013-01-01 15:13:00,77.7,64.5,30.04,South,173,4.0,5.0,64,0.00,,,0.00,Wunderground v.1.15,2013-01-01 20:13:00,
2013-01-01 15:17:00,77.8,64.6,30.04,SSE,155,5.0,6.0,64,0.00,,,0.00,Wunderground v.1.15,2013-01-01 20:17:00,
2013-01-01 15:18:00,77.8,64.6,30.04,ESE,115,1.0,6.0,64,0.00,,,0.00,Wunderground v.1.15,2013-01-01 20:18:00,
2013-01-01 15:22:00,77.8,64.6,30.04,South,176,6.0,10.0,64,0.00,,,0.00,Wunderground v.1.15,2013-01-01 20:22:00,
2013-01-01 15:23:00,77.8,64.6,30.04,South,183,4.0,10.0,64,0.00,,,0.00,Wunderground v.1.15,2013-01-01 20:23:00,
2013-01-01 15:27:00,77.8,64.6,30.05,South,174,4.0,10.0,64,0.00,,,0.00,Wunderground v.1.15,2013-01-01 20:27:00,
2013-01-01 15:28:00,77.8,64.6,30.05,South,186,5.0,10.0,64,0.00,,,0.00,Wunderground v.1.15,2013-01-01 20:28:00,
2013-01-01 15:32:00,77.6,64.9,30.05,South,177,2.0,9.0,65,0.00,,,0.00,Wunderground v.1.15,2013-01-01 20:32:00,
2013-01-01 15:33:00,77.6,64.9,30.05,South,177,2.0,9.0,65,0.00,,,0.00,Wunderground v.1.15,2013-01-01 20:33:00,
2013-01-01 15:34:00,77.6,64.9,30.04,ESE,116,4.0,9.0,65,0.00,,,0.00,Wunderground v.1.15,2013-01-01 20:34:00,
2013-01-01 15:38:00,77.8,64.6,30.04,SSE,147,3.0,11.0,64,0.00,,,0.00,Wunderground v.1.15,2013-01-01 20:38:00,
2013-01-01 15:39:00,77.8,64.6,30.04,SSE,159,4.0,11.0,64,0.00,,,0.00,Wunderground v.1.15,2013-01-01 20:39:00,
2013-01-01 15:43:00,77.7,65.0,30.04,South,169,5.0,7.0,65,0.00,,,0.00,Wunderground v.1.15,2013-01-01 20:43:00,
2013-01-01 15:44:00,77.7,65.0,30.04,South,175,3.0,9.0,65,0.00,,,0.00,Wunderground v.1.15,2013-01-01 20:44:00,
2013-01-01 15:48:00,77.6,65.3,30.04,South,186,0.0,9.0,66,0.00,,,0.00,Wunderground v.1.15,2013-01-01 20:48:00,
2013-01-01 15:49:00,77.6,65.3,30.04,South,174,4.0,4.0,66,0.00,,,0.00,Wunderground v.1.15,2013-01-01 20:49:00,
2013-01-01 15:53:00,77.5,65.2,30.04,ESE,120,4.0,4.0,66,0.00,,,0.00,Wunderground v.1.15,2013-01-01 20:53:00,
2013-01-01 15:54:00,77.5,65.2,30.04,South,169,3.0,4.0,66,0.00,,,0.00,Wunderground v.1.15,2013-01-01 20:54:00,
2013-01-01 15:58:00,77.4,65.6,30.04,SE,124,3.0,5.0,67,0.00,,,0.00,Wunderground v.1.15,2013-01-01 20:58:00,
2013-01-01 15:59:00,77.4,65.6,30.04,SSE,162,4.0,5.0,67,0.00,,,0.00,Wunderground v.1.15,2013-01-01 20:59:00,
2013-01-01 16:00:00,77.4,65.6,30.04,SSE,151,4.0,4.0,67,0.00,,,0.00,Wunderground v.1.15,2013-01-01 21:00:00,
2013-01-01 16:04:00,77.3,65.9,30.04,SSE,157,2.0,6.0,68,0.00,,,0.00,Wunderground v.1.15,2013-01-01 21:04:00,
2013-01-01 16:05:00,77.3,65.9,30.04,ESE,117,1.0,6.0,68,0.00,,,0.00,Wunderground v.1.15,2013-01-01 21:05:00,
2013-01-01 16:09:00,77.2,65.8,30.04,South,175,2.0,8.0,68,0.00,,,0.00,Wunderground v.1.15,2013-01-01 21:09:00,
2013-01-01 16:10:00,77.2,65.8,30.04,SSE,162,4.0,7.0,68,0.00,,,0.00,Wunderground v.1.15,2013-01-01 21:10:00,
2013-01-01 16:14:00,77.1,65.7,30.04,SSW,194,5.0,8.0,68,0.00,,,0.00,Wunderground v.1.15,2013-01-01 21:14:00,
2013-01-01 16:15:00,77.1,65.7,30.04,SE,142,2.0,10.0,68,0.00,,,0.00,Wunderground v.1.15,2013-01-01 21:15:00,
2013-01-01 16:19:00,77.0,65.6,30.04,SSE,162,4.0,10.0,68,0.00,,,0.00,Wunderground v.1.15,2013-01-01 21:19:00,
2013-01-01 16:20:00,77.0,65.2,30.04,South,169,5.0,10.0,67,0.00,,,0.00,Wunderground v.1.15,2013-01-01 21:20:00,
2013-01-01 16:24:00,76.8,65.0,30.03,ENE,75,3.0,12.0,67,0.00,,,0.00,Wunderground v.1.15,2013-01-01 21:24:00,
2013-01-01 16:25:00,76.7,64.9,30.04,SSE,163,1.0,12.0,67,0.00,,,0.00,Wunderground v.1.15,2013-01-01 21:25:00,
2013-01-01 16:26:00,76.7,64.9,30.04,South,175,3.0,12.0,67,0.00,,,0.00,Wunderground v.1.15,2013-01-01 21:26:00,
2013-01-01 16:29:00,76.6,64.4,30.04,South,189,4.0,13.0,66,0.00,,,0.00,Wunderground v.1.15,2013-01-01 21:29:00,
2013-01-01 16:30:00,76.6,64.4,30.03,ENE,62,3.0,10.0,66,0.00,,,0.00,Wunderground v.1.15,2013-01-01 21:30:00,
2013-01-01 16:31:00,76.6,64.4,30.03,South,178,9.0,10.0,66,0.00,,,0.00,Wunderground v.1.15,2013-01-01 21:31:00,
2013-01-01 16:35:00,76.6,64.4,30.03,SSW,196,4.0,13.0,66,0.00,,,0.00,Wunderground v.1.15,2013-01-01 21:35:00,
2013-01-01 16:36:00,76.6,64.4,30.04,East,88,1.0,13.0,66,0.00,,,0.00,Wunderground v.1.15,2013-01-01 21:36:00,
2013-01-01 16:40:00,76.5,64.3,30.04,SSW,192,9.0,9.0,66,0.00,,,0.00,Wunderground v.1.15,2013-01-01 21:40:00,
2013-01-01 16:41:00,76.5,64.3,30.04,SSE,150,5.0,9.0,66,0.00,,,0.00,Wunderground v.1.15,2013-01-01 21:41:00,
2013-01-01 16:45:00,76.4,64.2,30.04,SE,146,2.0,9.0,66,0.00,,,0.00,Wunderground v.1.15,2013-01-01 21:45:00,
2013-01-01 16:46:00,76.3,64.1,30.04,SSE,165,4.0,9.0,66,0.00,,,0.00,Wunderground v.1.15,2013-01-01 21:46:00,
2013-01-01 16:50:00,76.2,64.4,30.03,South,174,2.0,6.0,67,0.00,,,0.00,Wunderground v.1.15,2013-01-01 21:50:00,
2013-01-01 16:51:00,76.2,64.4,30.03,South,173,1.0,6.0,67,0.00,,,0.00,Wunderground v.1.15,2013-01-01 21:51:00,
2013-01-01 16:52:00,76.2,64.4,30.03,South,171,2.0,6.0,67,0.00,,,0.00,Wunderground v.1.15,2013-01-01 21:52:00,
2013-01-01 16:55:00,76.1,64.8,30.04,SE,142,1.0,6.0,68,0.00,,,0.00,Wunderground v.1.15,2013-01-01 21:55:00,
2013-01-01 16:56:00,76.1,64.8,30.04,SE,135,0.0,6.0,68,0.00,,,0.00,Wunderground v.1.15,2013-01-01 21:56:00,
2013-01-01 16:57:00,76.1,64.8,30.04,SE,137,1.0,6.0,68,0.00,,,0.00,Wunderground v.1.15,2013-01-01 21:57:00,
2013-01-01 17:00:00,76.0,64.2,30.04,ESE,119,3.0,7.0,67,0.00,,,0.00,Wunderground v.1.15,2013-01-01 22:00:00,
2013-01-01 17:01:00,76.0,64.2,30.04,SE,142,1.0,7.0,67,0.00,,,0.00,Wunderground v.1.15,2013-01-01 22:01:00,
2013-01-01 17:02:00,76.0,64.2,30.04,ESE,117,3.0,7.0,67,0.00,,,0.00,Wunderground v.1.15,2013-01-01 22:02:00,
2013-01-01 17:03:00,76.0,64.7,30.04,SSE,158,2.0,7.0,68,0.00,,,0.00,Wunderground v.1.15,2013-01-01 22:03:00,
2013-01-01 17:06:00,76.0,64.7,30.04,SSE,165,2.0,7.0,68,0.00,,,0.00,Wunderground v.1.15,2013-01-01 22:06:00,
2013-01-01 17:07:00,75.9,64.6,30.04,SSE,167,3.0,7.0,68,0.00,,,0.00,Wunderground v.1.15,2013-01-01 22:07:00,
2013-01-01 17:08:00,75.9,64.6,30.04,SSE,152,3.0,7.0,68,0.00,,,0.00,Wunderground v.1.15,2013-01-01 22:08:00,
2013-01-01 17:11:00,75.9,64.6,30.04,South,190,0.0,5.0,68,0.00,,,0.00,Wunderground v.1.15,2013-01-01 22:11:00,
2013-01-01 17:12:00,75.9,64.6,30.04,SSW,200,2.0,5.0,68,0.00,,,0.00,Wunderground v.1.15,2013-01-01 22:12:00,
2013-01-01 17:13:00,75.9,64.6,30.04,South,177,1.0,5.0,68,0.00,,,0.00,Wunderground v.1.15,2013-01-01 22:13:00,
2013-01-01 17:17:00,75.8,64.5,30.04,South,188,6.0,6.0,68,0.00,,,0.00,Wunderground v.1.15,2013-01-01 22:17:00,
2013-01-01 17:18:00,75.8,64.5,30.04,South,186,2.0,6.0,68,0.00,,,0.00,Wunderground v.1.15,2013-01-01 22:18:00,
2013-01-01 17:22:00,75.7,64.4,30.04,SSE,167,1.0,5.0,68,0.00,,,0.00,Wunderground v.1.15,2013-01-01 22:22:00,
2013-01-01 17:23:00,75.7,64.4,30.04,SSE,154,3.0,5.0,68,0.00,,,0.00,Wunderground v.1.15,2013-01-01 22:23:00,
2013-01-01 17:27:00,75.7,64.4,30.03,SE,139,1.0,8.0,68,0.00,,,0.00,Wunderground v.1.15,2013-01-01 22:27:00,
2013-01-01 17:28:00,75.7,64.4,30.03,SE,139,0.0,8.0,68,0.00,,,0.00,Wunderground v.1.15,2013-01-01 22:28:00,
2013-01-01 17:29:00,75.7,64.8,30.03,SE,142,5.0,8.0,69,0.00,,,0.00,Wunderground v.1.15,2013-01-01 22:29:00,
2013-01-01 17:33:00,75.6,64.3,30.03,SSE,162,1.0,7.0,68,0.00,,,0.00,Wunderground v.1.15,2013-01-01 22:33:00,
2013-01-01 17:34:00,75.6,64.7,30.03,SSE,163,2.0,7.0,69,0.00,,,0.00,Wunderground v.1.15,2013-01-01 22:34:00,
2013-01-01 17:38:00,75.5,64.6,30.03,South,185,1.0,7.0,69,0.00,,,0.00,Wunderground v.1.15,2013-01-01 22:38:00,
2013-01-01 17:39:00,75.5,64.2,30.03,SSE,151,2.0,7.0,68,0.00,,,0.00,Wunderground v.1.15,2013-01-01 22:39:00,
2013-01-01 17:43:00,75.5,64.2,30.03,SE,129,1.0,3.0,68,0.00,,,0.00,Wunderground v.1.15,2013-01-01 22:43:00,
2013-01-01 17:44:00,75.5,64.2,30.03,South,187,1.0,4.0,68,0.00,,,0.00,Wunderground v.1.15,2013-01-01 22:44:00,
2013-01-01 17:48:00,75.4,64.1,30.03,SSW,193,1.0,5.0,68,0.00,,,0.00,Wunderground v.1.15,2013-01-01 22:48:00,
2013-01-01 17:49:00,75.4,64.1,30.03,SSW,193,1.0,5.0,68,0.00,,,0.00,Wunderground v.1.15,2013-01-01 22:49:00,
2013-01-01 17:53:00,75.4,64.1,30.03,South,173,4.0,4.0,68,0.00,,,0.00,Wunderground v.1.15,2013-01-01 22:53:00,
2013-01-01 17:54:00,75.4,64.1,30.03,SSW,198,4.0,6.0,68,0.00,,,0.00,Wunderground v.1.15,2013-01-01 22:54:00,
2013-01-01 17:58:00,75.4,64.5,30.04,SE,139,1.0,6.0,69,0.00,,,0.00,Wunderground v.1.15,2013-01-01 22:58:00,
2013-01-01 17:59:00,75.4,64.5,30.04,SE,139,0.0,6.0,69,0.00,,,0.00,Wunderground v.1.15,2013-01-01 22:59:00,
2013-01-01 18:00:00,75.4,64.5,30.04,SE,145,2.0,2.0,69,0.00,,,0.00,Wunderground v.1.15,2013-01-01 23:00:00,
2013-01-01 18:04:00,75.3,64.4,30.04,SSW,196,1.0,3.0,69,0.00,,,0.00,Wunderground v.1.15,2013-01-01 23:04:00,
2013-01-01 18:05:00,75.3,64.4,30.04,South,179,2.0,3.0,69,0.00,,,0.00,Wunderground v.1.15,2013-01-01 23:05:00,
2013-01-01 18:09:00,75.3,64.4,30.04,SSE,150,4.0,5.0,69,0.00,,,0.00,Wunderground v.1.15,2013-01-01 23:09:00,
2013-01-01 18:10:00,75.3,64.4,30.04,South,186,3.0,6.0,69,0.00,,,0.00,Wunderground v.1.15,2013-01-01 23:10:00,
2013-01-01 18:11:00,75.2,64.3,30.04,South,178,1.0,6.0,69,0.00,,,0.00,Wunderground v.1.15,2013-01-01 23:11:00,
2013-01-01 18:14:00,75.2,64.3,30.04,South,179,0.0,6.0,69,0.00,,,0.00,Wunderground v.1.15,2013-01-01 23:14:00,
2013-01-01 18:15:00,75.2,64.3,30.04,South,178,1.0,6.0,69,0.00,,,0.00,Wunderground v.1.15,2013-01-01 23:15:00,
2013-01-01 18:16:00,75.2,64.3,30.04,South,179,1.0,6.0,69,0.00,,,0.00,Wunderground v.1.15,2013-01-01 23:16:00,
2013-01-01 18:20:00,75.1,64.2,30.04,SSW,209,0.0,1.0,69,0.00,,,0.00,Wunderground v.1.15,2013-01-01 23:20:00,
2013-01-01 18:22:00,75.1,63.8,30.04,SSE,148,1.0,3.0,68,0.00,,,0.00,Wunderground v.1.15,2013-01-01 23:22:00,
2013-01-01 18:25:00,75.1,63.8,30.04,South,173,2.0,3.0,68,0.00,,,0.00,Wunderground v.1.15,2013-01-01 23:25:00,
2013-01-01 18:27:00,75.1,64.2,30.04,South,173,0.0,3.0,69,0.00,,,0.00,Wunderground v.1.15,2013-01-01 23:27:00,
2013-01-01 18:30:00,75.1,63.8,30.04,South,188,1.0,2.0,68,0.00,,,0.00,Wunderground v.1.15,2013-01-01 23:30:00,
2013-01-01 18:31:00,75.0,63.7,30.05,South,188,0.0,2.0,68,0.00,,,0.00,Wunderground v.1.15,2013-01-01 23:31:00,
2013-01-01 18:32:00,75.0,63.7,30.05,South,188,0.0,2.0,68,0.00,,,0.00,Wunderground v.1.15,2013-01-01 23:32:00,
2013-01-01 18:35:00,75.0,63.7,30.05,South,187,0.0,3.0,68,0.00,,,0.00,Wunderground v.1.15,2013-01-01 23:35:00,
2013-01-01 18:36:00,75.0,63.7,30.04,South,188,0.0,3.0,68,0.00,,,0.00,Wunderground v.1.15,2013-01-01 23:36:00,
2013-01-01 18:37:00,75.1,64.2,30.04,SSW,213,2.0,4.0,69,0.00,,,0.00,Wunderground v.1.15,2013-01-01 23:37:00,
2013-01-01 18:40:00,75.0,64.1,30.05,South,179,1.0,2.0,69,0.00,,,0.00,Wunderground v.1.15,2013-01-01 23:40:00,
2013-01-01 18:41:00,75.0,64.1,30.05,South,179,0.0,2.0,69,0.00,,,0.00,Wunderground v.1.15,2013-01-01 23:41:00,
2013-01-01 18:42:00,75.0,64.1,30.04,South,179,1.0,2.0,69,0.00,,,0.00,Wunderground v.1.15,2013-01-01 23:42:00,
2013-01-01 18:45:00,75.1,64.2,30.05,South,179,1.0,2.0,69,0.00,,,0.00,Wunderground v.1.15,2013-01-01 23:45:00,
2013-01-01 18:46:00,75.0,64.1,30.05,South,179,0.0,2.0,69,0.00,,,0.00,Wunderground v.1.15,2013-01-01 23:46:00,
2013-01-01 18:48:00,75.1,64.2,30.05,South,179,0.0,2.0,69,0.00,,,0.00,Wunderground v.1.15,2013-01-01 23:48:00,
2013-01-01 18:50:00,75.0,64.1,30.05,South,179,0.0,1.0,69,0.00,,,0.00,Wunderground v.1.15,2013-01-01 23:50:00,
2013-01-01 18:51:00,75.0,64.1,30.05,South,179,0.0,1.0,69,0.00,,,0.00,Wunderground v.1.15,2013-01-01 23:51:00,
2013-01-01 18:54:00,75.0,64.1,30.05,South,179,1.0,2.0,69,0.00,,,0.00,Wunderground v.1.15,2013-01-01 23:54:00,
2013-01-01 18:56:00,75.0,64.1,30.04,SSE,153,0.0,3.0,69,0.00,,,0.00,Wunderground v.1.15,2013-01-01 23:56:00,
2013-01-01 18:59:00,74.9,64.0,30.04,SSE,159,0.0,1.0,69,0.00,,,0.00,Wunderground v.1.15,2013-01-01 23:59:00,
2013-01-01 19:01:00,74.9,64.0,30.04,SSE,158,3.0,4.0,69,0.00,,,0.00,Wunderground v.1.15,2013-01-02 00:01:00,
2013-01-01 19:02:00,74.9,64.0,30.04,South,174,2.0,4.0,69,0.00,,,0.00,Wunderground v.1.15,2013-01-02 00:02:00,
2013-01-01 19:04:00,74.9,64.0,30.04,South,182,2.0,4.0,69,0.00,,,0.00,Wunderground v.1.15,2013-01-02 00:04:00,
2013-01-01 19:06:00,74.9,64.0,30.04,SSE,167,1.0,4.0,69,0.00,,,0.00,Wunderground v.1.15,2013-01-02 00:06:00,
2013-01-01 19:07:00,74.9,64.0,30.04,SSE,168,3.0,4.0,69,0.00,,,0.00,Wunderground v.1.15,2013-01-02 00:07:00,
2013-01-01 19:09:00,74.9,64.0,30.04,South,178,2.0,2.0,69,0.00,,,0.00,Wunderground v.1.15,2013-01-02 00:09:00,
2013-01-01 19:12:00,74.8,63.9,30.04,SSW,202,1.0,2.0,69,0.00,,,0.00,Wunderground v.1.15,2013-01-02 00:12:00,
2013-01-01 19:14:00,74.8,63.9,30.04,SSW,202,2.0,2.0,69,0.00,,,0.00,Wunderground v.1.15,2013-01-02 00:14:00,
2013-01-01 19:17:00,74.8,63.5,30.05,SSW,202,1.0,2.0,68,0.00,,,0.00,Wunderground v.1.15,2013-01-02 00:17:00,
2013-01-01 19:19:00,74.7,63.9,30.04,SSW,201,1.0,1.0,69,0.00,,,0.00,Wunderground v.1.15,2013-01-02 00:19:00,
2013-01-01 19:22:00,74.7,63.4,30.04,SSW,202,1.0,1.0,68,0.00,,,0.00,Wunderground v.1.15,2013-01-02 00:22:00,
2013-01-01 19:25:00,74.6,63.8,30.05,SSW,201,0.0,2.0,69,0.00,,,0.00,Wunderground v.1.15,2013-01-02 00:25:00,
2013-01-01 19:27:00,74.6,63.3,30.04,SSW,201,0.0,2.0,68,0.00,,,0.00,Wunderground v.1.15,2013-01-02 00:27:00,
2013-01-01 19:28:00,74.5,63.2,30.05,SSW,201,0.0,2.0,68,0.00,,,0.00,Wunderground v.1.15,2013-01-02 00:28:00,
2013-01-01 19:30:00,74.5,63.7,30.05,SSW,202,0.0,0.0,69,0.00,,,0.00,Wunderground v.1.15,2013-01-02 00:30:00,
2013-01-01 19:32:00,74.4,63.1,30.05,SSW,202,0.0,0.0,68,0.00,,,0.00,Wunderground v.1.15,2013-01-02 00:32:00,
2013-01-01 19:33:00,74.4,63.6,30.05,SSW,202,0.0,0.0,69,0.00,,,0.00,Wunderground v.1.15,2013-01-02 00:33:00,
2013-01-01 19:35:00,74.3,63.5,30.05,SSW,201,0.0,0.0,69,0.00,,,0.00,Wunderground v.1.15,2013-01-02 00:35:00,
2013-01-01 19:38:00,74.2,63.4,30.05,SSW,201,0.0,0.0,69,0.00,,,0.00,Wunderground v.1.15,2013-01-02 00:38:00,
2013-01-01 19:40:00,74.1,63.3,30.05,SSW,202,0.0,0.0,69,0.00,,,0.00,Wunderground v.1.15,2013-01-02 00:40:00,
2013-01-01 19:43:00,74.0,63.2,30.05,SSW,201,0.0,0.0,69,0.00,,,0.00,Wunderground v.1.15,2013-01-02 00:43:00,
2013-01-01 19:44:00,74.0,63.2,30.05,SSW,202,0.0,0.0,69,0.00,,,0.00,Wunderground v.1.15,2013-01-02 00:44:00,
2013-01-01 19:46:00,74.0,63.2,30.05,SSW,202,0.0,0.0,69,0.00,,,0.00,Wunderground v.1.15,2013-01-02 00:46:00,
2013-01-01 19:48:00,73.9,63.1,30.05,SSW,202,0.0,0.0,69,0.00,,,0.00,Wunderground v.1.15,2013-01-02 00:48:00,
2013-01-01 19:49:00,73.8,63.0,30.05,SSW,202,0.0,0.0,69,0.00,,,0.00,Wunderground v.1.15,2013-01-02 00:49:00,
2013-01-01 19:51:00,73.8,63.0,30.05,SSW,202,0.0,0.0,69,0.00,,,0.00,Wunderground v.1.15,2013-01-02 00:51:00,
2013-01-01 19:53:00,73.7,63.3,30.05,SSW,202,0.0,0.0,70,0.00,,,0.00,Wunderground v.1.15,2013-01-02 00:53:00,
2013-01-01 19:54:00,73.6,63.2,30.05,SSW,202,0.0,0.0,70,0.00,,,0.00,Wunderground v.1.15,2013-01-02 00:54:00,
2013-01-01 19:56:00,73.5,63.1,30.05,SSW,201,0.0,0.0,70,0.00,,,0.00,Wunderground v.1.15,2013-01-02 00:56:00,
2013-01-01 19:59:00,73.4,63.4,30.05,SSW,202,0.0,0.0,71,0.00,,,0.00,Wunderground v.1.15,2013-01-02 00:59:00,
2013-01-01 20:02:00,73.3,63.3,30.05,SSW,201,0.0,0.0,71,0.00,,,0.00,Wunderground v.1.15,2013-01-02 01:02:00,
2013-01-01 20:04:00,73.1,63.1,30.05,SSW,201,0.0,0.0,71,0.00,,,0.00,Wunderground v.1.15,2013-01-02 01:04:00,
2013-01-01 20:05:00,73.1,63.1,30.05,SSW,202,0.0,0.0,71,0.00,,,0.00,Wunderground v.1.15,2013-01-02 01:05:00,
2013-01-01 20:07:00,73.0,63.0,30.05,SSW,202,0.0,0.0,71,0.00,,,0.00,Wunderground v.1.15,2013-01-02 01:07:00,
2013-01-01 20:09:00,73.0,63.0,30.05,SSW,201,0.0,0.0,71,0.00,,,0.00,Wunderground v.1.15,2013-01-02 01:09:00,
2013-01-01 20:10:00,73.0,63.0,30.05,SSW,201,0.0,0.0,71,0.00,,,0.00,Wunderground v.1.15,2013-01-02 01:10:00,
2013-01-01 20:12:00,72.9,62.9,30.06,SSW,201,0.0,0.0,71,0.00,,,0.00,Wunderground v.1.15,2013-01-02 01:12:00,
2013-01-01 20:14:00,72.8,63.2,30.06,SSW,201,0.0,0.0,72,0.00,,,0.00,Wunderground v.1.15,2013-01-02 01:14:00,
2013-01-01 20:15:00,72.8,63.2,30.06,SSW,202,0.0,0.0,72,0.00,,,0.00,Wunderground v.1.15,2013-01-02 01:15:00,
2013-01-01 20:17:00,72.7,63.1,30.06,SSW,202,0.0,0.0,72,0.00,,,0.00,Wunderground v.1.15,2013-01-02 01:17:00,
2013-01-01 20:19:00,72.7,63.1,30.05,SSW,202,0.0,0.0,72,0.00,,,0.00,Wunderground v.1.15,2013-01-02 01:19:00,
2013-01-01 20:20:00,72.7,63.1,30.05,SSW,202,0.0,0.0,72,0.00,,,0.00,Wunderground v.1.15,2013-01-02 01:20:00,
2013-01-01 20:22:00,72.6,63.1,30.05,SSW,201,0.0,0.0,72,0.00,,,0.00,Wunderground v.1.15,2013-01-02 01:22:00,
2013-01-01 20:23:00,72.6,63.1,30.05,SSW,202,0.0,0.0,72,0.00,,,0.00,Wunderground v.1.15,2013-01-02 01:23:00,
2013-01-01 20:25:00,72.5,63.0,30.05,SSW,202,0.0,0.0,72,0.00,,,0.00,Wunderground v.1.15,2013-01-02 01:25:00,
2013-01-01 20:27:00,72.4,62.9,30.05,SSW,201,0.0,0.0,72,0.00,,,0.00,Wunderground v.1.15,2013-01-02 01:27:00,
2013-01-01 20:28:00,72.4,62.9,30.05,SSW,202,0.0,0.0,72,0.00,,,0.00,Wunderground v.1.15,2013-01-02 01:28:00,
2013-01-01 20:30:00,72.4,63.3,30.05,SSW,202,0.0,0.0,73,0.00,,,0.00,Wunderground v.1.15,2013-01-02 01:30:00,
2013-01-01 20:31:00,72.4,63.3,30.05,SSW,201,0.0,0.0,73,0.00,,,0.00,Wunderground v.1.15,2013-01-02 01:31:00,
2013-01-01 20:33:00,72.3,63.2,30.05,SSW,202,0.0,0.0,73,0.00,,,0.00,Wunderground v.1.15,2013-01-02 01:33:00,
2013-01-01 20:36:00,72.2,63.1,30.06,SSW,202,0.0,0.0,73,0.00,,,0.00,Wunderground v.1.15,2013-01-02 01:36:00,
2013-01-01 20:38:00,72.1,63.0,30.06,SSW,202,0.0,0.0,73,0.00,,,0.00,Wunderground v.1.15,2013-01-02 01:38:00,
2013-01-01 20:39:00,72.1,63.0,30.06,SSW,201,0.0,0.0,73,0.00,,,0.00,Wunderground v.1.15,2013-01-02 01:39:00,
2013-01-01 20:41:00,72.1,63.0,30.06,SSW,202,0.0,0.0,73,0.00,,,0.00,Wunderground v.1.15,2013-01-02 01:41:00,
2013-01-01 20:43:00,71.9,62.8,30.06,SSW,201,0.0,0.0,73,0.00,,,0.00,Wunderground v.1.15,2013-01-02 01:43:00,
2013-01-01 20:44:00,71.9,62.8,30.06,SSW,202,0.0,0.0,73,0.00,,,0.00,Wunderground v.1.15,2013-01-02 01:44:00,
2013-01-01 20:46:00,71.9,63.2,30.06,SSW,202,0.0,0.0,74,0.00,,,0.00,Wunderground v.1.15,2013-01-02 01:46:00,
2013-01-01 20:47:00,71.8,63.1,30.06,SSW,201,0.0,0.0,74,0.00,,,0.00,Wunderground v.1.15,2013-01-02 01:47:00,
2013-01-01 20:48:00,71.8,63.1,30.06,SSW,202,0.0,0.0,74,0.00,,,0.00,Wunderground v.1.15,2013-01-02 01:48:00,
2013-01-01 20:49:00,71.8,63.1,30.06,SSW,202,0.0,0.0,74,0.00,,,0.00,Wunderground v.1.15,2013-01-02 01:49:00,
2013-01-01 20:51:00,71.7,63.4,30.06,SSW,202,0.0,0.0,75,0.00,,,0.00,Wunderground v.1.15,2013-01-02 01:51:00,
2013-01-01 20:52:00,71.7,63.4,30.06,SSW,202,0.0,0.0,75,0.00,,,0.00,Wunderground v.1.15,2013-01-02 01:52:00,
2013-01-01 20:53:00,71.7,63.4,30.06,SSW,202,0.0,0.0,75,0.00,,,0.00,Wunderground v.1.15,2013-01-02 01:53:00,
2013-01-01 20:54:00,71.7,63.4,30.06,SSW,202,0.0,0.0,75,0.00,,,0.00,Wunderground v.1.15,2013-01-02 01:54:00,
2013-01-01 20:56:00,71.7,63.4,30.06,SSW,201,0.0,0.0,75,0.00,,,0.00,Wunderground v.1.15,2013-01-02 01:56:00,
2013-01-01 20:57:00,71.7,63.4,30.06,SSW,201,0.0,0.0,75,0.00,,,0.00,Wunderground v.1.15,2013-01-02 01:57:00,
2013-01-01 20:58:00,71.7,63.4,30.06,SSW,202,0.0,0.0,75,0.00,,,0.00,Wunderground v.1.15,2013-01-02 01:58:00,
2013-01-01 21:00:00,71.6,63.6,30.06,SSW,201,0.0,0.0,76,0.00,,,0.00,Wunderground v.1.15,2013-01-02 02:00:00,
2013-01-01 21:01:00,71.6,63.3,30.06,SSW,201,0.0,0.0,75,0.00,,,0.00,Wunderground v.1.15,2013-01-02 02:01:00,
2013-01-01 21:02:00,71.6,63.3,30.06,SSW,202,0.0,0.0,75,0.00,,,0.00,Wunderground v.1.15,2013-01-02 02:02:00,
2013-01-01 21:04:00,71.6,63.3,30.06,SSW,202,0.0,0.0,75,0.00,,,0.00,Wunderground v.1.15,2013-01-02 02:04:00,
2013-01-01 21:05:00,71.5,63.2,30.06,SSW,202,0.0,0.0,75,0.00,,,0.00,Wunderground v.1.15,2013-01-02 02:05:00,
2013-01-01 21:06:00,71.5,63.2,30.06,SSW,202,0.0,0.0,75,0.00,,,0.00,Wunderground v.1.15,2013-01-02 02:06:00,
2013-01-01 21:08:00,71.5,63.2,30.06,SSW,202,0.0,0.0,75,0.00,,,0.00,Wunderground v.1.15,2013-01-02 02:08:00,
2013-01-01 21:09:00,71.5,63.2,30.06,SSW,202,0.0,0.0,75,0.00,,,0.00,Wunderground v.1.15,2013-01-02 02:09:00,
2013-01-01 21:11:00,71.4,63.1,30.06,SSW,202,0.0,0.0,75,0.00,,,0.00,Wunderground v.1.15,2013-01-02 02:11:00,
2013-01-01 21:12:00,71.4,63.1,30.06,SSW,202,0.0,0.0,75,0.00,,,0.00,Wunderground v.1.15,2013-01-02 02:12:00,
2013-01-01 21:13:00,71.4,63.1,30.06,SSW,201,0.0,0.0,75,0.00,,,0.00,Wunderground v.1.15,2013-01-02 02:13:00,
2013-01-01 21:14:00,71.4,63.1,30.06,SSW,202,0.0,0.0,75,0.00,,,0.00,Wunderground v.1.15,2013-01-02 02:14:00,
2013-01-01 21:16:00,71.3,63.0,30.06,SSW,201,0.0,0.0,75,0.00,,,0.00,Wunderground v.1.15,2013-01-02 02:16:00,
2013-01-01 21:17:00,71.3,63.0,30.06,SSW,201,0.0,0.0,75,0.00,,,0.00,Wunderground v.1.15,2013-01-02 02:17:00,
2013-01-01 21:19:00,71.3,63.0,30.06,SSW,202,0.0,0.0,75,0.00,,,0.00,Wunderground v.1.15,2013-01-02 02:19:00,
2013-01-01 21:20:00,71.3,63.0,30.06,SSW,202,0.0,0.0,75,0.00,,,0.00,Wunderground v.1.15,2013-01-02 02:20:00,
2013-01-01 21:22:00,71.2,62.9,30.06,SSW,202,0.0,1.0,75,0.00,,,0.00,Wunderground v.1.15,2013-01-02 02:22:00,
2013-01-01 21:24:00,71.2,62.9,30.06,SSW,201,0.0,1.0,75,0.00,,,0.00,Wunderground v.1.15,2013-01-02 02:24:00,
2013-01-01 21:25:00,71.2,62.9,30.06,SSW,202,0.0,1.0,75,0.00,,,0.00,Wunderground v.1.15,2013-01-02 02:25:00,
2013-01-01 21:27:00,71.1,62.8,30.06,SSW,202,0.0,1.0,75,0.00,,,0.00,Wunderground v.1.15,2013-01-02 02:27:00,
2013-01-01 21:30:00,71.0,62.7,30.06,SSW,202,0.0,0.0,75,0.00,,,0.00,Wunderground v.1.15,2013-01-02 02:30:00,
2013-01-01 21:32:00,71.0,62.7,30.06,SSW,202,0.0,0.0,75,0.00,,,0.00,Wunderground v.1.15,2013-01-02 02:32:00,
2013-01-01 21:35:00,70.9,62.6,30.06,SSW,202,0.0,0.0,75,0.00,,,0.00,Wunderground v.1.15,2013-01-02 02:35:00,
2013-01-01 21:37:00,70.9,62.6,30.06,SSW,202,0.0,0.0,75,0.00,,,0.00,Wunderground v.1.15,2013-01-02 02:37:00,
2013-01-01 21:40:00,70.9,63.0,30.06,SSW,202,0.0,0.0,76,0.00,,,0.00,Wunderground v.1.15,2013-01-02 02:40:00,
2013-01-01 21:43:00,70.8,62.9,30.06,SSW,202,0.0,0.0,76,0.00,,,0.00,Wunderground v.1.15,2013-01-02 02:43:00,
2013-01-01 21:45:00,70.8,62.9,30.06,SSW,202,0.0,0.0,76,0.00,,,0.00,Wunderground v.1.15,2013-01-02 02:45:00,
2013-01-01 21:48:00,70.7,62.8,30.06,SSW,202,0.0,0.0,76,0.00,,,0.00,Wunderground v.1.15,2013-01-02 02:48:00,
2013-01-01 21:50:00,70.6,62.7,30.06,SSW,202,0.0,0.0,76,0.00,,,0.00,Wunderground v.1.15,2013-01-02 02:50:00,
2013-01-01 21:51:00,70.6,62.7,30.06,SSW,202,0.0,0.0,76,0.00,,,0.00,Wunderground v.1.15,2013-01-02 02:51:00,
2013-01-01 21:53:00,70.6,62.7,30.06,SSW,202,0.0,0.0,76,0.00,,,0.00,Wunderground v.1.15,2013-01-02 02:53:00,
2013-01-01 21:54:00,70.6,62.7,30.06,SSW,202,0.0,0.0,76,0.00,,,0.00,Wunderground v.1.15,2013-01-02 02:54:00,
2013-01-01 21:55:00,70.5,62.6,30.07,SSW,202,0.0,0.0,76,0.00,,,0.00,Wunderground v.1.15,2013-01-02 02:55:00,
2013-01-01 21:56:00,70.5,62.6,30.07,SSW,202,0.0,0.0,76,0.00,,,0.00,Wunderground v.1.15,2013-01-02 02:56:00,
2013-01-01 21:58:00,70.4,62.5,30.07,SSW,202,0.0,0.0,76,0.00,,,0.00,Wunderground v.1.15,2013-01-02 02:58:00,
2013-01-01 21:59:00,70.4,62.5,30.07,SSW,202,0.0,0.0,76,0.00,,,0.00,Wunderground v.1.15,2013-01-02 02:59:00,
2013-01-01 22:00:00,70.4,62.8,30.07,SSW,201,0.0,0.0,77,0.00,,,0.00,Wunderground v.1.15,2013-01-02 03:00:00,
2013-01-01 22:01:00,70.3,62.7,30.07,SSW,202,0.0,0.0,77,0.00,,,0.00,Wunderground v.1.15,2013-01-02 03:01:00,
2013-01-01 22:03:00,70.3,62.7,30.07,SSW,201,0.0,0.0,77,0.00,,,0.00,Wunderground v.1.15,2013-01-02 03:03:00,
2013-01-01 22:05:00,70.3,62.7,30.07,SSW,201,0.0,0.0,77,0.00,,,0.00,Wunderground v.1.15,2013-01-02 03:05:00,
2013-01-01 22:07:00,70.2,62.6,30.06,SSW,202,0.0,0.0,77,0.00,,,0.00,Wunderground v.1.15,2013-01-02 03:07:00,
2013-01-01 22:08:00,70.2,62.6,30.06,SSW,202,0.0,0.0,77,0.00,,,0.00,Wunderground v.1.15,2013-01-02 03:08:00,
2013-01-01 22:10:00,70.2,62.6,30.06,SSW,201,0.0,0.0,77,0.00,,,0.00,Wunderground v.1.15,2013-01-02 03:10:00,
2013-01-01 22:12:00,70.1,62.6,30.06,SSW,202,0.0,0.0,77,0.00,,,0.00,Wunderground v.1.15,2013-01-02 03:12:00,
2013-01-01 22:13:00,70.1,62.6,30.07,SSW,202,0.0,0.0,77,0.00,,,0.00,Wunderground v.1.15,2013-01-02 03:13:00,
2013-01-01 22:15:00,70.1,62.6,30.06,SSW,202,0.0,0.0,77,0.00,,,0.00,Wunderground v.1.15,2013-01-02 03:15:00,
2013-01-01 22:16:00,70.1,62.9,30.06,SSW,202,0.0,0.0,78,0.00,,,0.00,Wunderground v.1.15,2013-01-02 03:16:00,
2013-01-01 22:17:00,70.1,62.9,30.06,SSW,201,0.0,0.0,78,0.00,,,0.00,Wunderground v.1.15,2013-01-02 03:17:00,
2013-01-01 22:18:00,70.1,62.9,30.06,SSW,201,0.0,0.0,78,0.00,,,0.00,Wunderground v.1.15,2013-01-02 03:18:00,
2013-01-01 22:21:00,70.1,62.9,30.06,SSW,202,0.0,0.0,78,0.00,,,0.00,Wunderground v.1.15,2013-01-02 03:21:00,
2013-01-01 22:23:00,70.1,62.9,30.06,SSW,202,0.0,0.0,78,0.00,,,0.00,Wunderground v.1.15,2013-01-02 03:23:00,
2013-01-01 22:26:00,70.1,62.9,30.06,SSW,202,0.0,0.0,78,0.00,,,0.00,Wunderground v.1.15,2013-01-02 03:26:00,
2013-01-01 22:28:00,70.1,62.9,30.06,SSW,201,0.0,0.0,78,0.00,,,0.00,Wunderground v.1.15,2013-01-02 03:28:00,
2013-01-01 22:29:00,70.1,62.9,30.06,SSW,201,0.0,0.0,78,0.00,,,0.00,Wunderground v.1.15,2013-01-02 03:29:00,
2013-01-01 22:31:00,70.0,62.8,30.06,SSW,201,0.0,0.0,78,0.00,,,0.00,Wunderground v.1.15,2013-01-02 03:31:00,
2013-01-01 22:32:00,70.0,62.8,30.06,SSW,201,0.0,0.0,78,0.00,,,0.00,Wunderground v.1.15,2013-01-02 03:32:00,
2013-01-01 22:33:00,70.0,62.8,30.06,SSW,202,0.0,0.0,78,0.00,,,0.00,Wunderground v.1.15,2013-01-02 03:33:00,
2013-01-01 22:34:00,70.0,62.8,30.06,SSW,202,0.0,0.0,78,0.00,,,0.00,Wunderground v.1.15,2013-01-02 03:34:00,
2013-01-01 22:36:00,70.0,62.8,30.06,SSW,202,0.0,0.0,78,0.00,,,0.00,Wunderground v.1.15,2013-01-02 03:36:00,
2013-01-01 22:38:00,70.0,62.8,30.06,SSW,202,0.0,0.0,78,0.00,,,0.00,Wunderground v.1.15,2013-01-02 03:38:00,
2013-01-01 22:39:00,70.0,62.8,30.06,SSW,201,0.0,0.0,78,0.00,,,0.00,Wunderground v.1.15,2013-01-02 03:39:00,
2013-01-01 22:41:00,70.0,62.8,30.06,SSW,202,0.0,0.0,78,0.00,,,0.00,Wunderground v.1.15,2013-01-02 03:41:00,
2013-01-01 22:42:00,70.0,62.8,30.06,SSW,201,0.0,0.0,78,0.00,,,0.00,Wunderground v.1.15,2013-01-02 03:42:00,
2013-01-01 22:44:00,70.0,62.8,30.06,SSW,202,0.0,0.0,78,0.00,,,0.00,Wunderground v.1.15,2013-01-02 03:44:00,
2013-01-01 22:46:00,70.1,62.9,30.06,SSW,202,0.0,1.0,78,0.00,,,0.00,Wunderground v.1.15,2013-01-02 03:46:00,
2013-01-01 22:47:00,70.1,62.9,30.06,SSW,202,0.0,1.0,78,0.00,,,0.00,Wunderground v.1.15,2013-01-02 03:47:00,
2013-01-01 22:49:00,70.1,62.9,30.06,SSW,202,0.0,1.0,78,0.00,,,0.00,Wunderground v.1.15,2013-01-02 03:49:00,
2013-01-01 22:52:00,70.1,62.9,30.06,SSW,202,0.0,0.0,78,0.00,,,0.00,Wunderground v.1.15,2013-01-02 03:52:00,
2013-01-01 22:54:00,70.2,63.4,30.06,SSW,201,0.0,0.0,79,0.00,,,0.00,Wunderground v.1.15,2013-01-02 03:54:00,
2013-01-01 22:57:00,70.2,63.4,30.06,SSW,201,0.0,0.0,79,0.00,,,0.00,Wunderground v.1.15,2013-01-02 03:57:00,
2013-01-01 23:00:00,70.2,63.4,30.06,SSW,202,0.0,1.0,79,0.00,,,0.00,Wunderground v.1.15,2013-01-02 04:00:00,
2013-01-01 23:02:00,70.2,63.4,30.06,SSW,201,0.0,1.0,79,0.00,,,0.00,Wunderground v.1.15,2013-01-02 04:02:00,
2013-01-01 23:05:00,70.2,63.4,30.05,SSW,202,0.0,1.0,79,0.00,,,0.00,Wunderground v.1.15,2013-01-02 04:05:00,
2013-01-01 23:07:00,70.2,63.4,30.05,SSW,202,0.0,1.0,79,0.00,,,0.00,Wunderground v.1.15,2013-01-02 04:07:00,
2013-01-01 23:08:00,70.2,63.4,30.05,SSW,202,0.0,1.0,79,0.00,,,0.00,Wunderground v.1.15,2013-01-02 04:08:00,
2013-01-01 23:10:00,70.2,63.4,30.05,SSW,202,0.0,0.0,79,0.00,,,0.00,Wunderground v.1.15,2013-01-02 04:10:00,
2013-01-01 23:11:00,70.1,63.3,30.05,SSW,202,0.0,0.0,79,0.00,,,0.00,Wunderground v.1.15,2013-01-02 04:11:00,
2013-01-01 23:13:00,70.1,63.3,30.05,SSW,202,0.0,0.0,79,0.00,,,0.00,Wunderground v.1.15,2013-01-02 04:13:00,
2013-01-01 23:15:00,70.0,63.2,30.05,SSW,201,0.0,0.0,79,0.00,,,0.00,Wunderground v.1.15,2013-01-02 04:15:00,
2013-01-01 23:17:00,70.0,63.2,30.05,SSW,201,0.0,0.0,79,0.00,,,0.00,Wunderground v.1.15,2013-01-02 04:17:00,
2013-01-01 23:18:00,70.0,63.2,30.05,SSW,202,0.0,0.0,79,0.00,,,0.00,Wunderground v.1.15,2013-01-02 04:18:00,
2013-01-01 23:21:00,69.9,63.1,30.05,SSW,202,0.0,0.0,79,0.00,,,0.00,Wunderground v.1.15,2013-01-02 04:21:00,
2013-01-01 23:22:00,69.8,63.0,30.05,SSW,202,0.0,0.0,79,0.00,,,0.00,Wunderground v.1.15,2013-01-02 04:22:00,
2013-01-01 23:23:00,69.8,63.0,30.05,SSW,201,0.0,0.0,79,0.00,,,0.00,Wunderground v.1.15,2013-01-02 04:23:00,
2013-01-01 23:26:00,69.7,63.3,30.05,SSW,202,0.0,0.0,80,0.00,,,0.00,Wunderground v.1.15,2013-01-02 04:26:00,
2013-01-01 23:27:00,69.7,63.3,30.05,SSW,201,0.0,0.0,80,0.00,,,0.00,Wunderground v.1.15,2013-01-02 04:27:00,
2013-01-01 23:28:00,69.7,63.3,30.05,SSW,202,0.0,0.0,80,0.00,,,0.00,Wunderground v.1.15,2013-01-02 04:28:00,
2013-01-01 23:29:00,69.6,63.2,30.05,SSW,202,0.0,0.0,80,0.00,,,0.00,Wunderground v.1.15,2013-01-02 04:29:00,
2013-01-01 23:31:00,69.5,62.7,30.05,SSW,202,0.0,0.0,79,0.00,,,0.00,Wunderground v.1.15,2013-01-02 04:31:00,
2013-01-01 23:32:00,69.5,62.7,30.05,SSW,201,0.0,0.0,79,0.00,,,0.00,Wunderground v.1.15,2013-01-02 04:32:00,
2013-01-01 23:33:00,69.5,63.1,30.05,SSW,202,0.0,0.0,80,0.00,,,0.00,Wunderground v.1.15,2013-01-02 04:33:00,
2013-01-01 23:34:00,69.4,63.0,30.05,SSW,202,0.0,0.0,80,0.00,,,0.00,Wunderground v.1.15,2013-01-02 04:34:00,
2013-01-01 23:37:00,69.4,63.0,30.05,SSW,201,0.0,0.0,80,0.00,,,0.00,Wunderground v.1.15,2013-01-02 04:37:00,
2013-01-01 23:38:00,69.3,62.9,30.05,SSW,202,0.0,0.0,80,0.00,,,0.00,Wunderground v.1.15,2013-01-02 04:38:00,
2013-01-01 23:39:00,69.3,62.9,30.05,SSW,202,0.0,0.0,80,0.00,,,0.00,Wunderground v.1.15,2013-01-02 04:39:00,
2013-01-01 23:42:00,69.2,62.8,30.05,SSW,202,0.0,0.0,80,0.00,,,0.00,Wunderground v.1.15,2013-01-02 04:42:00,
2013-01-01 23:43:00,69.1,62.7,30.04,SSW,202,0.0,0.0,80,0.00,,,0.00,Wunderground v.1.15,2013-01-02 04:43:00,
2013-01-01 23:45:00,69.1,63.0,30.04,SSW,202,0.0,0.0,81,0.00,,,0.00,Wunderground v.1.15,2013-01-02 04:45:00,
2013-01-01 23:47:00,69.0,62.9,30.04,SSW,202,0.0,0.0,81,0.00,,,0.00,Wunderground v.1.15,2013-01-02 04:47:00,
2013-01-01 23:48:00,69.0,62.9,30.04,SSW,202,0.0,0.0,81,0.00,,,0.00,Wunderground v.1.15,2013-01-02 04:48:00,
2013-01-01 23:49:00,69.0,62.9,30.04,SSW,201,0.0,0.0,81,0.00,,,0.00,Wunderground v.1.15,2013-01-02 04:49:00,
2013-01-01 23:50:00,68.9,62.8,30.04,SSW,202,0.0,0.0,81,0.00,,,0.00,Wunderground v.1.15,2013-01-02 04:50:00,
2013-01-01 23:53:00,68.8,62.7,30.04,SSW,201,0.0,0.0,81,0.00,,,0.00,Wunderground v.1.15,2013-01-02 04:53:00,
2013-01-01 23:54:00,68.8,62.7,30.04,SSW,202,0.0,0.0,81,0.00,,,0.00,Wunderground v.1.15,2013-01-02 04:54:00,
2013-01-01 23:56:00,68.8,62.7,30.04,SSW,202,0.0,0.0,81,0.00,,,0.00,Wunderground v.1.15,2013-01-02 04:56:00,
2013-01-01 23:58:00,68.7,62.6,30.04,SSW,202,0.0,0.0,81,0.00,,,0.00,Wunderground v.1.15,2013-01-02 04:58:00,
2013-01-01 23:59:00,68.7,62.6,30.04,SSW,202,0.0,0.0,81,0.00,,,0.00,Wunderground v.1.15,2013-01-02 04:59:00,